Time,TemperatureF,DewpointF,PressureIn,WindDirection,WindDirectionDegrees,WindSpeedMPH,WindSpeedGustMPH,Humidity,HourlyPrecipIn,Conditions,Clouds,dailyrainin,SolarRadiationWatts/m^2,SoftwareType,DateUTC
2013-05-04 00:01:00,76.6,71.4,29.76,NNW,347,4.0,7.0,84,0.00,,FEW,0.09,0.00,VWS V14.01,2013-05-04 04:01:00,
2013-05-04 00:06:00,76.5,71.3,29.76,NW,304,4.0,6.0,84,0.00,,FEW,0.00,0.00,VWS V14.01,2013-05-04 04:06:00,
2013-05-04 00:11:00,76.4,70.9,29.76,NNW,329,5.0,9.0,83,0.00,,FEW,0.00,0.00,VWS V14.01,2013-05-04 04:11:00,
2013-05-04 00:12:00,76.3,70.8,29.76,North,349,5.0,9.0,83,0.00,,FEW,0.00,0.00,VWS V14.01,2013-05-04 04:12:00,
2013-05-04 00:16:00,76.3,70.8,29.76,NNW,329,5.0,7.0,83,0.00,,FEW,0.00,0.00,VWS V14.01,2013-05-04 04:16:00,
2013-05-04 00:17:00,76.3,70.8,29.76,NW,319,3.0,7.0,83,0.00,,FEW,0.00,0.00,VWS V14.01,2013-05-04 04:17:00,
2013-05-04 00:21:00,76.3,70.8,29.75,WNW,302,8.0,11.0,83,0.00,,FEW,0.00,0.00,VWS V14.01,2013-05-04 04:21:00,
2013-05-04 00:22:00,76.3,70.8,29.75,NW,310,7.0,11.0,83,0.00,,FEW,0.00,0.00,VWS V14.01,2013-05-04 04:22:00,
2013-05-04 00:26:00,76.2,70.3,29.75,North,5,10.0,10.0,82,0.00,,FEW,0.00,0.00,VWS V14.01,2013-05-04 04:26:00,
2013-05-04 00:27:00,76.2,70.3,29.75,WNW,302,4.0,10.0,82,0.00,,FEW,0.00,0.00,VWS V14.01,2013-05-04 04:27:00,
2013-05-04 00:31:00,76.2,70.3,29.75,NNW,329,4.0,10.0,82,0.00,,FEW,0.00,0.00,VWS V14.01,2013-05-04 04:31:00,
2013-05-04 00:32:00,76.2,70.3,29.75,NW,325,4.0,10.0,82,0.00,,FEW,0.00,0.00,VWS V14.01,2013-05-04 04:32:00,
2013-05-04 00:37:00,76.1,69.8,29.75,NW,307,7.0,8.0,81,0.00,,FEW,0.00,0.00,VWS V14.01,2013-05-04 04:37:00,
2013-05-04 00:42:00,76.1,69.8,29.75,WNW,295,7.0,9.0,81,0.00,,FEW,0.00,0.00,VWS V14.01,2013-05-04 04:42:00,
2013-05-04 00:47:00,76.1,69.8,29.74,NNW,336,4.0,7.0,81,0.00,,FEW,0.00,0.00,VWS V14.01,2013-05-04 04:47:00,
2013-05-04 00:48:00,76.1,69.8,29.74,NNW,336,3.0,7.0,81,0.00,,FEW,0.00,0.00,VWS V14.01,2013-05-04 04:48:00,
2013-05-04 00:52:00,76.2,69.9,29.74,WNW,302,6.0,9.0,81,0.00,,FEW,0.00,0.00,VWS V14.01,2013-05-04 04:52:00,
2013-05-04 00:53:00,76.2,69.9,29.74,NW,305,7.0,9.0,81,0.00,,FEW,0.00,0.00,VWS V14.01,2013-05-04 04:53:00,
2013-05-04 00:57:00,76.1,69.8,29.74,NW,308,5.0,8.0,81,0.00,,FEW,0.00,0.00,VWS V14.01,2013-05-04 04:57:00,
2013-05-04 00:58:00,76.1,69.8,29.74,NNW,331,2.0,8.0,81,0.00,,FEW,0.00,0.00,VWS V14.01,2013-05-04 04:58:00,
2013-05-04 01:02:00,76.1,69.8,29.74,WNW,287,7.0,10.0,81,0.00,,FEW,0.00,0.00,VWS V14.01,2013-05-04 05:02:00,
2013-05-04 01:03:00,76.1,69.8,29.74,NNW,334,8.0,10.0,81,0.00,,FEW,0.00,0.00,VWS V14.01,2013-05-04 05:03:00,
2013-05-04 01:07:00,76.1,69.8,29.74,NW,317,6.0,8.0,81,0.00,,FEW,0.00,0.00,VWS V14.01,2013-05-04 05:07:00,
2013-05-04 01:08:00,76.1,69.8,29.74,NW,320,3.0,8.0,81,0.00,,FEW,0.00,0.00,VWS V14.01,2013-05-04 05:08:00,
2013-05-04 01:12:00,76.1,69.8,29.74,NNW,343,4.0,8.0,81,0.00,,FEW,0.00,0.00,VWS V14.01,2013-05-04 05:12:00,
2013-05-04 01:13:00,76.1,69.8,29.74,NW,311,3.0,8.0,81,0.00,,FEW,0.00,0.00,VWS V14.01,2013-05-04 05:13:00,
2013-05-04 01:14:00,76.1,69.8,29.74,WNW,303,3.0,8.0,81,0.00,,FEW,0.00,0.00,VWS V14.01,2013-05-04 05:14:00,
2013-05-04 01:17:00,76.1,70.2,29.74,NNW,338,8.0,8.0,82,0.00,,FEW,0.00,0.00,VWS V14.01,2013-05-04 05:17:00,
2013-05-04 01:18:00,76.1,70.2,29.74,NW,306,6.0,8.0,82,0.00,,FEW,0.00,0.00,VWS V14.01,2013-05-04 05:18:00,
2013-05-04 01:19:00,76.1,70.2,29.74,WNW,303,4.0,8.0,82,0.00,,FEW,0.00,0.00,VWS V14.01,2013-05-04 05:19:00,
2013-05-04 01:22:00,76.1,70.2,29.74,WNW,296,3.0,8.0,82,0.00,,FEW,0.00,0.00,VWS V14.01,2013-05-04 05:22:00,
2013-05-04 01:23:00,76.0,70.1,29.74,WNW,301,5.0,7.0,82,0.00,,FEW,0.00,0.00,VWS V14.01,2013-05-04 05:23:00,
2013-05-04 01:24:00,76.0,70.1,29.74,NNW,333,6.0,7.0,82,0.00,,FEW,0.00,0.00,VWS V14.01,2013-05-04 05:24:00,
2013-05-04 01:27:00,76.0,70.1,29.74,NW,319,4.0,9.0,82,0.00,,FEW,0.00,0.00,VWS V14.01,2013-05-04 05:27:00,
2013-05-04 01:28:00,76.0,70.1,29.74,NNW,347,4.0,9.0,82,0.00,,FEW,0.00,0.00,VWS V14.01,2013-05-04 05:28:00,
2013-05-04 01:29:00,75.9,70.0,29.74,NW,309,7.0,9.0,82,0.00,,FEW,0.00,0.00,VWS V14.01,2013-05-04 05:29:00,
2013-05-04 01:32:00,75.9,70.0,29.74,NW,312,7.0,9.0,82,0.00,,FEW,0.00,0.00,VWS V14.01,2013-05-04 05:32:00,
2013-05-04 01:33:00,75.9,70.0,29.74,WNW,302,8.0,8.0,82,0.00,,FEW,0.00,0.00,VWS V14.01,2013-05-04 05:33:00,
2013-05-04 01:34:00,75.9,70.0,29.74,NNW,344,4.0,8.0,82,0.00,,FEW,0.00,0.00,VWS V14.01,2013-05-04 05:34:00,
2013-05-04 01:37:00,75.9,70.0,29.74,WNW,292,4.0,9.0,82,0.00,,FEW,0.00,0.00,VWS V14.01,2013-05-04 05:37:00,
2013-05-04 01:38:00,75.9,70.0,29.74,NNW,342,3.0,9.0,82,0.00,,FEW,0.00,0.00,VWS V14.01,2013-05-04 05:38:00,
2013-05-04 01:39:00,75.9,70.0,29.74,NW,304,4.0,9.0,82,0.00,,FEW,0.00,0.00,VWS V14.01,2013-05-04 05:39:00,
2013-05-04 01:43:00,75.9,70.0,29.74,NW,319,4.0,4.0,82,0.00,,FEW,0.00,0.00,VWS V14.01,2013-05-04 05:43:00,
2013-05-04 01:44:00,75.9,70.0,29.74,NW,321,7.0,7.0,82,0.00,,FEW,0.00,0.00,VWS V14.01,2013-05-04 05:44:00,
2013-05-04 01:48:00,75.9,70.4,29.74,NNW,329,4.0,7.0,83,0.00,,FEW,0.00,0.00,VWS V14.01,2013-05-04 05:48:00,
2013-05-04 01:49:00,75.9,70.4,29.74,West,279,3.0,7.0,83,0.00,,FEW,0.00,0.00,VWS V14.01,2013-05-04 05:49:00,
2013-05-04 01:53:00,75.9,70.4,29.74,NW,325,2.0,4.0,83,0.00,,FEW,0.00,0.00,VWS V14.01,2013-05-04 05:53:00,
2013-05-04 01:54:00,75.9,70.4,29.74,NNW,342,3.0,4.0,83,0.00,,FEW,0.00,0.00,VWS V14.01,2013-05-04 05:54:00,
2013-05-04 01:55:00,75.9,70.4,29.74,NNW,348,7.0,7.0,83,0.00,,FEW,0.00,0.00,VWS V14.01,2013-05-04 05:55:00,
2013-05-04 01:58:00,75.8,70.3,29.74,NNW,334,8.0,8.0,83,0.00,,FEW,0.00,0.00,VWS V14.01,2013-05-04 05:58:00,
2013-05-04 01:59:00,75.8,70.3,29.74,NNW,335,4.0,8.0,83,0.00,,FEW,0.00,0.00,VWS V14.01,2013-05-04 05:59:00,
2013-05-04 02:00:00,75.8,70.3,29.74,NNW,338,1.0,8.0,83,0.00,,FEW,0.00,0.00,VWS V14.01,2013-05-04 06:00:00,
2013-05-04 02:03:00,75.7,70.2,29.73,NW,317,4.0,5.0,83,0.00,,FEW,0.00,0.00,VWS V14.01,2013-05-04 06:03:00,
2013-05-04 02:04:00,75.7,70.2,29.73,WNW,288,5.0,5.0,83,0.00,,FEW,0.00,0.00,VWS V14.01,2013-05-04 06:04:00,
2013-05-04 02:05:00,75.7,70.2,29.73,NW,306,9.0,9.0,83,0.00,,FEW,0.00,0.00,VWS V14.01,2013-05-04 06:05:00,
2013-05-04 02:09:00,75.6,69.7,29.73,North,355,6.0,9.0,82,0.00,,FEW,0.00,0.00,VWS V14.01,2013-05-04 06:09:00,
2013-05-04 02:10:00,75.5,69.6,29.73,NNW,330,3.0,9.0,82,0.00,,FEW,0.00,0.00,VWS V14.01,2013-05-04 06:10:00,
2013-05-04 02:14:00,75.6,69.7,29.73,North,349,3.0,7.0,82,0.00,,FEW,0.00,0.00,VWS V14.01,2013-05-04 06:14:00,
2013-05-04 02:15:00,75.6,69.7,29.73,NW,313,3.0,7.0,82,0.00,,FEW,0.00,0.00,VWS V14.01,2013-05-04 06:15:00,
2013-05-04 02:19:00,75.7,70.2,29.73,WNW,303,5.0,8.0,83,0.00,,FEW,0.00,0.00,VWS V14.01,2013-05-04 06:19:00,
2013-05-04 02:20:00,75.7,70.2,29.73,WNW,289,5.0,8.0,83,0.00,,FEW,0.00,0.00,VWS V14.01,2013-05-04 06:20:00,
2013-05-04 02:24:00,75.8,70.3,29.73,NW,311,3.0,7.0,83,0.00,,FEW,0.00,0.00,VWS V14.01,2013-05-04 06:24:00,
2013-05-04 02:25:00,75.8,70.3,29.73,North,350,4.0,7.0,83,0.00,,FEW,0.00,0.00,VWS V14.01,2013-05-04 06:25:00,
2013-05-04 02:26:00,75.7,70.2,29.73,NW,306,4.0,7.0,83,0.00,,FEW,0.00,0.00,VWS V14.01,2013-05-04 06:26:00,
2013-05-04 02:29:00,75.7,70.2,29.73,NW,319,4.0,8.0,83,0.00,,FEW,0.00,0.00,VWS V14.01,2013-05-04 06:29:00,
2013-05-04 02:30:00,75.7,70.2,29.73,NW,317,6.0,9.0,83,0.00,,FEW,0.00,0.00,VWS V14.01,2013-05-04 06:30:00,
2013-05-04 02:31:00,75.7,70.2,29.73,NNW,327,5.0,9.0,83,0.00,,FEW,0.00,0.00,VWS V14.01,2013-05-04 06:31:00,
2013-05-04 02:34:00,75.7,70.2,29.72,NNW,344,8.0,8.0,83,0.00,,FEW,0.00,0.00,VWS V14.01,2013-05-04 06:34:00,
2013-05-04 02:35:00,75.6,70.1,29.72,NW,305,5.0,8.0,83,0.00,,FEW,0.00,0.00,VWS V14.01,2013-05-04 06:35:00,
2013-05-04 02:36:00,75.6,70.1,29.72,NW,315,3.0,8.0,83,0.00,,FEW,0.00,0.00,VWS V14.01,2013-05-04 06:36:00,
2013-05-04 02:39:00,75.6,70.1,29.72,WNW,294,2.0,10.0,83,0.00,,FEW,0.00,0.00,VWS V14.01,2013-05-04 06:39:00,
2013-05-04 02:40:00,75.6,70.1,29.72,NW,314,10.0,10.0,83,0.00,,FEW,0.00,0.00,VWS V14.01,2013-05-04 06:40:00,
2013-05-04 02:41:00,75.6,70.1,29.72,NW,319,4.0,10.0,83,0.00,,FEW,0.00,0.00,VWS V14.01,2013-05-04 06:41:00,
2013-05-04 02:44:00,75.6,70.1,29.72,NNW,331,7.0,8.0,83,0.00,,FEW,0.00,0.00,VWS V14.01,2013-05-04 06:44:00,
2013-05-04 02:45:00,75.6,70.1,29.72,North,355,4.0,8.0,83,0.00,,FEW,0.00,0.00,VWS V14.01,2013-05-04 06:45:00,
2013-05-04 02:46:00,75.5,70.0,29.72,WNW,302,5.0,8.0,83,0.00,,FEW,0.00,0.00,VWS V14.01,2013-05-04 06:46:00,
2013-05-04 02:49:00,75.5,70.0,29.72,NNW,330,6.0,9.0,83,0.00,,FEW,0.00,0.00,VWS V14.01,2013-05-04 06:49:00,
2013-05-04 02:50:00,75.6,70.1,29.72,WNW,302,9.0,9.0,83,0.00,,FEW,0.00,0.00,VWS V14.01,2013-05-04 06:50:00,
2013-05-04 02:51:00,75.6,70.1,29.72,NNW,335,4.0,9.0,83,0.00,,FEW,0.00,0.00,VWS V14.01,2013-05-04 06:51:00,
2013-05-04 02:52:00,75.6,70.1,29.72,NNE,20,4.0,9.0,83,0.00,,FEW,0.00,0.00,VWS V14.01,2013-05-04 06:52:00,
2013-05-04 02:54:00,75.6,70.1,29.72,NNW,338,4.0,10.0,83,0.00,,FEW,0.00,0.00,VWS V14.01,2013-05-04 06:54:00,
2013-05-04 02:55:00,75.5,70.0,29.72,NW,324,2.0,10.0,83,0.00,,FEW,0.00,0.00,VWS V14.01,2013-05-04 06:55:00,
2013-05-04 02:56:00,75.6,70.1,29.72,North,9,6.0,10.0,83,0.00,,FEW,0.00,0.00,VWS V14.01,2013-05-04 06:56:00,
2013-05-04 02:57:00,75.6,70.1,29.72,WNW,296,3.0,10.0,83,0.00,,FEW,0.00,0.00,VWS V14.01,2013-05-04 06:57:00,
2013-05-04 02:59:00,75.6,70.1,29.72,WNW,298,3.0,10.0,83,0.00,,FEW,0.00,0.00,VWS V14.01,2013-05-04 06:59:00,
2013-05-04 03:00:00,75.6,70.1,29.72,WNW,291,2.0,10.0,83,0.00,,FEW,0.00,0.00,VWS V14.01,2013-05-04 07:00:00,
2013-05-04 03:01:00,75.5,70.0,29.72,WNW,302,6.0,10.0,83,0.00,,FEW,0.00,0.00,VWS V14.01,2013-05-04 07:01:00,
2013-05-04 03:02:00,75.5,70.0,29.72,NW,305,4.0,10.0,83,0.00,,FEW,0.00,0.00,VWS V14.01,2013-05-04 07:02:00,
2013-05-04 03:05:00,75.4,69.9,29.72,NNW,339,4.0,9.0,83,0.00,,FEW,0.00,0.00,VWS V14.01,2013-05-04 07:05:00,
2013-05-04 03:06:00,75.4,69.9,29.72,NW,311,3.0,9.0,83,0.00,,FEW,0.00,0.00,VWS V14.01,2013-05-04 07:06:00,
2013-05-04 03:07:00,75.4,69.9,29.72,NW,304,5.0,9.0,83,0.00,,FEW,0.00,0.00,VWS V14.01,2013-05-04 07:07:00,
2013-05-04 03:10:00,75.4,69.9,29.72,WNW,300,9.0,11.0,83,0.00,,FEW,0.00,0.00,VWS V14.01,2013-05-04 07:10:00,
2013-05-04 03:11:00,75.4,69.9,29.72,NW,306,6.0,11.0,83,0.00,,FEW,0.00,0.00,VWS V14.01,2013-05-04 07:11:00,
2013-05-04 03:12:00,75.4,69.9,29.72,WNW,299,7.0,11.0,83,0.00,,FEW,0.00,0.00,VWS V14.01,2013-05-04 07:12:00,
2013-05-04 03:15:00,75.4,69.9,29.72,NW,312,8.0,9.0,83,0.00,,FEW,0.00,0.00,VWS V14.01,2013-05-04 07:15:00,
2013-05-04 03:16:00,75.4,69.9,29.72,WNW,288,5.0,9.0,83,0.00,,FEW,0.00,0.00,VWS V14.01,2013-05-04 07:16:00,
2013-05-04 03:17:00,75.5,70.0,29.71,NNW,346,2.0,9.0,83,0.00,,FEW,0.00,0.00,VWS V14.01,2013-05-04 07:17:00,
2013-05-04 03:20:00,75.4,69.5,29.71,NW,308,6.0,9.0,82,0.00,,FEW,0.00,0.00,VWS V14.01,2013-05-04 07:20:00,
2013-05-04 03:21:00,75.4,69.5,29.71,WNW,302,5.0,9.0,82,0.00,,FEW,0.00,0.00,VWS V14.01,2013-05-04 07:21:00,
2013-05-04 03:22:00,75.4,69.5,29.71,WNW,298,3.0,10.0,82,0.00,,FEW,0.00,0.00,VWS V14.01,2013-05-04 07:22:00,
2013-05-04 03:25:00,75.5,70.0,29.71,NW,322,6.0,10.0,83,0.00,,FEW,0.00,0.00,VWS V14.01,2013-05-04 07:25:00,
2013-05-04 03:26:00,75.5,70.0,29.71,NW,306,4.0,10.0,83,0.00,,FEW,0.00,0.00,VWS V14.01,2013-05-04 07:26:00,
2013-05-04 03:27:00,75.5,70.0,29.71,WNW,302,8.0,10.0,83,0.00,,FEW,0.00,0.00,VWS V14.01,2013-05-04 07:27:00,
2013-05-04 03:30:00,75.5,70.0,29.71,NNW,329,3.0,10.0,83,0.00,,FEW,0.00,0.00,VWS V14.01,2013-05-04 07:30:00,
2013-05-04 03:31:00,75.5,70.0,29.71,WNW,300,3.0,10.0,83,0.00,,FEW,0.00,0.00,VWS V14.01,2013-05-04 07:31:00,
2013-05-04 03:32:00,75.5,70.0,29.71,WNW,290,7.0,10.0,83,0.00,,FEW,0.00,0.00,VWS V14.01,2013-05-04 07:32:00,
2013-05-04 03:36:00,75.4,69.9,29.72,WNW,302,3.0,9.0,83,0.00,,FEW,0.00,0.00,VWS V14.01,2013-05-04 07:36:00,
2013-05-04 03:37:00,75.4,69.9,29.72,WNW,297,3.0,9.0,83,0.00,,FEW,0.00,0.00,VWS V14.01,2013-05-04 07:37:00,
2013-05-04 03:41:00,75.4,69.9,29.72,West,271,4.0,10.0,83,0.00,,FEW,0.00,0.00,VWS V14.01,2013-05-04 07:41:00,
2013-05-04 03:42:00,75.4,69.9,29.72,WNW,300,3.0,10.0,83,0.00,,FEW,0.00,0.00,VWS V14.01,2013-05-04 07:42:00,
2013-05-04 03:46:00,75.4,69.9,29.72,NW,321,6.0,10.0,83,0.00,,FEW,0.00,0.00,VWS V14.01,2013-05-04 07:46:00,
2013-05-04 03:47:00,75.4,69.9,29.71,NW,304,5.0,10.0,83,0.00,,FEW,0.00,0.00,VWS V14.01,2013-05-04 07:47:00,
2013-05-04 03:48:00,75.4,69.9,29.71,NNW,333,5.0,10.0,83,0.00,,FEW,0.00,0.00,VWS V14.01,2013-05-04 07:48:00,
2013-05-04 03:51:00,75.4,69.9,29.71,NNW,338,4.0,10.0,83,0.00,,FEW,0.00,0.00,VWS V14.01,2013-05-04 07:51:00,
2013-05-04 03:52:00,75.4,69.9,29.71,NNW,334,4.0,10.0,83,0.00,,FEW,0.00,0.00,VWS V14.01,2013-05-04 07:52:00,
2013-05-04 03:53:00,75.4,69.9,29.71,WNW,286,4.0,10.0,83,0.00,,FEW,0.00,0.00,VWS V14.01,2013-05-04 07:53:00,
2013-05-04 03:56:00,75.3,69.8,29.71,WNW,300,6.0,8.0,83,0.00,,FEW,0.00,0.00,VWS V14.01,2013-05-04 07:56:00,
2013-05-04 03:57:00,75.3,69.8,29.71,WNW,288,3.0,8.0,83,0.00,,FEW,0.00,0.00,VWS V14.01,2013-05-04 07:57:00,
2013-05-04 03:58:00,75.3,69.8,29.71,WNW,295,3.0,8.0,83,0.00,,FEW,0.00,0.00,VWS V14.01,2013-05-04 07:58:00,
2013-05-04 04:01:00,75.3,69.8,29.71,NW,311,4.0,10.0,83,0.00,,FEW,0.00,0.00,VWS V14.01,2013-05-04 08:01:00,
2013-05-04 04:02:00,75.3,69.8,29.71,NW,306,5.0,10.0,83,0.00,,FEW,0.00,0.00,VWS V14.01,2013-05-04 08:02:00,
2013-05-04 04:03:00,75.3,69.8,29.71,NW,306,3.0,10.0,83,0.00,,FEW,0.00,0.00,VWS V14.01,2013-05-04 08:03:00,
2013-05-04 04:06:00,75.4,69.9,29.71,WNW,300,8.0,9.0,83,0.00,,FEW,0.00,0.00,VWS V14.01,2013-05-04 08:06:00,
2013-05-04 04:07:00,75.4,69.9,29.71,WNW,295,9.0,11.0,83,0.00,,FEW,0.00,0.00,VWS V14.01,2013-05-04 08:07:00,
2013-05-04 04:08:00,75.4,69.9,29.71,WNW,295,7.0,11.0,83,0.00,,FEW,0.00,0.00,VWS V14.01,2013-05-04 08:08:00,
2013-05-04 04:12:00,75.3,69.8,29.71,NW,306,4.0,11.0,83,0.00,,FEW,0.00,0.00,VWS V14.01,2013-05-04 08:12:00,
2013-05-04 04:13:00,75.4,69.9,29.71,WNW,301,8.0,11.0,83,0.00,,FEW,0.00,0.00,VWS V14.01,2013-05-04 08:13:00,
2013-05-04 04:17:00,75.5,70.0,29.71,West,275,7.0,9.0,83,0.00,,FEW,0.00,0.00,VWS V14.01,2013-05-04 08:17:00,
2013-05-04 04:18:00,75.4,69.9,29.71,WNW,294,3.0,9.0,83,0.00,,FEW,0.00,0.00,VWS V14.01,2013-05-04 08:18:00,
2013-05-04 04:22:00,75.4,69.9,29.71,NW,312,2.0,9.0,83,0.00,,FEW,0.00,0.00,VWS V14.01,2013-05-04 08:22:00,
2013-05-04 04:23:00,75.4,69.9,29.71,WNW,294,5.0,8.0,83,0.00,,FEW,0.00,0.00,VWS V14.01,2013-05-04 08:23:00,
2013-05-04 04:27:00,75.3,69.8,29.71,NNW,327,9.0,9.0,83,0.00,,FEW,0.00,0.00,VWS V14.01,2013-05-04 08:27:00,
2013-05-04 04:28:00,75.4,69.9,29.71,WNW,292,4.0,9.0,83,0.00,,FEW,0.00,0.00,VWS V14.01,2013-05-04 08:28:00,
2013-05-04 04:32:00,75.4,69.9,29.71,NW,313,6.0,9.0,83,0.00,,FEW,0.00,0.00,VWS V14.01,2013-05-04 08:32:00,
2013-05-04 04:33:00,75.4,69.9,29.71,WNW,300,5.0,8.0,83,0.00,,FEW,0.00,0.00,VWS V14.01,2013-05-04 08:33:00,
2013-05-04 04:34:00,75.5,70.0,29.71,NNW,336,2.0,8.0,83,0.00,,FEW,0.00,0.00,VWS V14.01,2013-05-04 08:34:00,
2013-05-04 04:37:00,75.4,69.9,29.71,NW,322,4.0,9.0,83,0.00,,FEW,0.00,0.00,VWS V14.01,2013-05-04 08:37:00,
2013-05-04 04:38:00,75.5,70.0,29.71,NW,312,8.0,9.0,83,0.00,,FEW,0.00,0.00,VWS V14.01,2013-05-04 08:38:00,
2013-05-04 04:39:00,75.4,69.9,29.71,WNW,291,5.0,9.0,83,0.00,,FEW,0.00,0.00,VWS V14.01,2013-05-04 08:39:00,
2013-05-04 04:42:00,75.4,69.9,29.71,WNW,289,7.0,9.0,83,0.00,,FEW,0.00,0.00,VWS V14.01,2013-05-04 08:42:00,
2013-05-04 04:43:00,75.3,69.8,29.71,NW,313,7.0,7.0,83,0.00,,FEW,0.00,0.00,VWS V14.01,2013-05-04 08:43:00,
2013-05-04 04:44:00,75.4,69.9,29.71,NNW,327,6.0,8.0,83,0.00,,FEW,0.00,0.00,VWS V14.01,2013-05-04 08:44:00,
2013-05-04 04:47:00,75.3,69.8,29.71,NNW,342,6.0,9.0,83,0.00,,FEW,0.00,0.00,VWS V14.01,2013-05-04 08:47:00,
2013-05-04 04:48:00,75.3,69.8,29.71,NNW,327,4.0,9.0,83,0.00,,FEW,0.00,0.00,VWS V14.01,2013-05-04 08:48:00,
2013-05-04 04:49:00,75.3,69.8,29.71,NW,307,4.0,9.0,83,0.00,,FEW,0.00,0.00,VWS V14.01,2013-05-04 08:49:00,
2013-05-04 04:52:00,75.3,69.8,29.71,NW,309,8.0,9.0,83,0.00,,FEW,0.00,0.00,VWS V14.01,2013-05-04 08:52:00,
2013-05-04 04:53:00,75.3,69.8,29.71,NW,317,4.0,8.0,83,0.00,,FEW,0.00,0.00,VWS V14.01,2013-05-04 08:53:00,
2013-05-04 04:55:00,75.3,69.8,29.71,NNW,342,7.0,8.0,83,0.00,,FEW,0.00,0.00,VWS V14.01,2013-05-04 08:55:00,
2013-05-04 04:58:00,75.2,69.7,29.71,NE,46,4.0,8.0,83,0.00,,FEW,0.00,0.00,VWS V14.01,2013-05-04 08:58:00,
2013-05-04 04:59:00,75.2,69.3,29.71,NW,310,6.0,9.0,82,0.00,,FEW,0.00,0.00,VWS V14.01,2013-05-04 08:59:00,
2013-05-04 05:00:00,75.2,69.3,29.71,NNE,21,5.0,9.0,82,0.00,,FEW,0.00,0.00,VWS V14.01,2013-05-04 09:00:00,
2013-05-04 05:03:00,75.2,69.3,29.71,NW,320,4.0,4.0,82,0.00,,FEW,0.00,0.00,VWS V14.01,2013-05-04 09:03:00,
2013-05-04 05:04:00,75.2,69.3,29.71,NNW,331,6.0,10.0,82,0.00,,FEW,0.00,0.00,VWS V14.01,2013-05-04 09:04:00,
2013-05-04 05:05:00,75.2,69.3,29.71,NW,315,7.0,10.0,82,0.00,,FEW,0.00,0.00,VWS V14.01,2013-05-04 09:05:00,
2013-05-04 05:08:00,75.2,69.3,29.71,NNW,336,3.0,10.0,82,0.00,,FEW,0.00,0.00,VWS V14.01,2013-05-04 09:08:00,
2013-05-04 05:09:00,75.2,69.3,29.71,NW,317,4.0,10.0,82,0.00,,FEW,0.00,0.00,VWS V14.01,2013-05-04 09:09:00,
2013-05-04 05:10:00,75.2,69.3,29.71,NW,323,3.0,10.0,82,0.00,,FEW,0.00,0.00,VWS V14.01,2013-05-04 09:10:00,
2013-05-04 05:13:00,75.2,69.3,29.71,WNW,301,3.0,6.0,82,0.00,,FEW,0.00,0.00,VWS V14.01,2013-05-04 09:13:00,
2013-05-04 05:14:00,75.3,69.4,29.71,WNW,296,6.0,6.0,82,0.00,,FEW,0.00,0.00,VWS V14.01,2013-05-04 09:14:00,
2013-05-04 05:15:00,75.2,69.3,29.71,NW,315,5.0,6.0,82,0.00,,FEW,0.00,0.00,VWS V14.01,2013-05-04 09:15:00,
2013-05-04 05:19:00,75.2,69.0,29.71,North,351,2.0,9.0,81,0.00,,FEW,0.00,0.00,VWS V14.01,2013-05-04 09:19:00,
2013-05-04 05:20:00,75.2,69.0,29.71,WNW,298,5.0,9.0,81,0.00,,FEW,0.00,0.00,VWS V14.01,2013-05-04 09:20:00,
2013-05-04 05:24:00,75.3,69.4,29.71,NW,320,3.0,3.0,82,0.00,,FEW,0.00,0.00,VWS V14.01,2013-05-04 09:24:00,
2013-05-04 05:25:00,75.3,69.4,29.71,NNW,335,4.0,5.0,82,0.00,,FEW,0.00,0.00,VWS V14.01,2013-05-04 09:25:00,
2013-05-04 05:29:00,75.2,69.3,29.71,NW,314,3.0,8.0,82,0.00,,FEW,0.00,0.00,VWS V14.01,2013-05-04 09:29:00,
2013-05-04 05:30:00,75.2,69.3,29.71,WNW,290,10.0,10.0,82,0.00,,FEW,0.00,0.00,VWS V14.01,2013-05-04 09:30:00,
2013-05-04 05:34:00,75.2,69.3,29.72,WNW,294,6.0,7.0,82,0.00,,FEW,0.00,0.00,VWS V14.01,2013-05-04 09:34:00,
2013-05-04 05:35:00,75.2,69.3,29.72,NW,306,3.0,9.0,82,0.00,,FEW,0.00,0.00,VWS V14.01,2013-05-04 09:35:00,
2013-05-04 05:36:00,75.2,69.3,29.72,WNW,299,3.0,9.0,82,0.00,,FEW,0.00,0.00,VWS V14.01,2013-05-04 09:36:00,
2013-05-04 05:39:00,75.3,69.4,29.72,WNW,300,8.0,10.0,82,0.00,,FEW,0.00,0.00,VWS V14.01,2013-05-04 09:39:00,
2013-05-04 05:41:00,75.3,69.4,29.72,WNW,295,3.0,10.0,82,0.00,,FEW,0.00,0.00,VWS V14.01,2013-05-04 09:41:00,
2013-05-04 05:44:00,75.3,69.4,29.72,WNW,297,5.0,11.0,82,0.00,,FEW,0.00,0.00,VWS V14.01,2013-05-04 09:44:00,
2013-05-04 05:46:00,75.3,69.4,29.72,WNW,287,9.0,11.0,82,0.00,,FEW,0.00,0.00,VWS V14.01,2013-05-04 09:46:00,
2013-05-04 05:49:00,75.3,69.4,29.73,NW,310,8.0,13.0,82,0.00,,FEW,0.00,0.00,VWS V14.01,2013-05-04 09:49:00,
2013-05-04 05:50:00,75.3,69.4,29.73,NW,310,8.0,13.0,82,0.00,,FEW,0.00,0.00,VWS V14.01,2013-05-04 09:50:00,
2013-05-04 05:51:00,75.2,69.0,29.73,NW,304,6.0,13.0,81,0.00,,FEW,0.00,0.00,VWS V14.01,2013-05-04 09:51:00,
2013-05-04 05:55:00,75.2,69.0,29.73,NNW,344,4.0,11.0,81,0.00,,FEW,0.00,0.00,VWS V14.01,2013-05-04 09:55:00,
2013-05-04 05:56:00,75.3,69.4,29.73,NNW,334,4.0,11.0,82,0.00,,FEW,0.00,0.00,VWS V14.01,2013-05-04 09:56:00,
2013-05-04 06:00:00,75.3,69.4,29.73,NW,318,1.0,11.0,82,0.00,,FEW,0.00,0.00,VWS V14.01,2013-05-04 10:00:00,
2013-05-04 06:01:00,75.3,69.4,29.73,WNW,298,8.0,11.0,82,0.00,,FEW,0.00,0.00,VWS V14.01,2013-05-04 10:01:00,
2013-05-04 06:05:00,75.3,69.4,29.73,WNW,303,3.0,11.0,82,0.00,,FEW,0.00,0.00,VWS V14.01,2013-05-04 10:05:00,
2013-05-04 06:06:00,75.3,69.1,29.73,WNW,298,3.0,11.0,81,0.00,,FEW,0.00,0.00,VWS V14.01,2013-05-04 10:06:00,
2013-05-04 06:07:00,75.2,69.0,29.73,WNW,299,4.0,11.0,81,0.00,,FEW,0.00,0.00,VWS V14.01,2013-05-04 10:07:00,
2013-05-04 06:10:00,75.2,69.0,29.73,NW,313,7.0,11.0,81,0.00,,FEW,0.00,0.00,VWS V14.01,2013-05-04 10:10:00,
2013-05-04 06:11:00,75.2,69.0,29.73,WNW,303,3.0,11.0,81,0.00,,FEW,0.00,0.00,VWS V14.01,2013-05-04 10:11:00,
2013-05-04 06:12:00,75.2,69.0,29.73,WNW,295,4.0,11.0,81,0.00,,FEW,0.00,0.00,VWS V14.01,2013-05-04 10:12:00,
2013-05-04 06:15:00,75.2,69.0,29.73,North,355,2.0,8.0,81,0.00,,FEW,0.00,0.00,VWS V14.01,2013-05-04 10:15:00,
2013-05-04 06:16:00,75.2,69.0,29.73,West,275,3.0,8.0,81,0.00,,FEW,0.00,0.00,VWS V14.01,2013-05-04 10:16:00,
2013-05-04 06:17:00,75.2,69.3,29.73,NW,311,7.0,8.0,82,0.00,,FEW,0.00,0.00,VWS V14.01,2013-05-04 10:17:00,
2013-05-04 06:20:00,75.2,69.3,29.73,WNW,300,2.0,10.0,82,0.00,,FEW,0.00,0.00,VWS V14.01,2013-05-04 10:20:00,
2013-05-04 06:21:00,75.2,69.3,29.73,WNW,302,1.0,10.0,82,0.00,,FEW,0.00,0.00,VWS V14.01,2013-05-04 10:21:00,
2013-05-04 06:22:00,75.1,69.2,29.73,NW,306,4.0,10.0,82,0.00,,FEW,0.00,0.00,VWS V14.01,2013-05-04 10:22:00,
2013-05-04 06:25:00,75.1,69.2,29.73,WNW,295,5.0,11.0,82,0.00,,FEW,0.00,0.00,VWS V14.01,2013-05-04 10:25:00,
2013-05-04 06:26:00,75.1,69.2,29.73,WNW,291,1.0,11.0,82,0.00,,FEW,0.00,0.00,VWS V14.01,2013-05-04 10:26:00,
2013-05-04 06:27:00,75.1,69.2,29.73,WNW,287,3.0,11.0,82,0.00,,FEW,0.00,0.00,VWS V14.01,2013-05-04 10:27:00,
2013-05-04 06:30:00,75.1,69.2,29.73,WNW,302,2.0,11.0,82,0.00,,FEW,0.00,0.00,VWS V14.01,2013-05-04 10:30:00,
2013-05-04 06:31:00,75.1,69.2,29.73,WNW,302,6.0,11.0,82,0.00,,FEW,0.00,0.00,VWS V14.01,2013-05-04 10:31:00,
2013-05-04 06:32:00,75.1,69.2,29.74,WNW,286,4.0,11.0,82,0.00,,FEW,0.00,0.00,VWS V14.01,2013-05-04 10:32:00,
2013-05-04 06:35:00,75.0,69.1,29.74,WNW,301,4.0,5.0,82,0.00,,FEW,0.00,0.00,VWS V14.01,2013-05-04 10:35:00,
2013-05-04 06:36:00,75.0,69.1,29.74,WNW,296,5.0,6.0,82,0.00,,FEW,0.00,0.00,VWS V14.01,2013-05-04 10:36:00,
2013-05-04 06:37:00,74.9,69.0,29.74,NW,312,4.0,9.0,82,0.00,,FEW,0.00,0.00,VWS V14.01,2013-05-04 10:37:00,
2013-05-04 06:40:00,74.9,69.0,29.74,NW,315,5.0,10.0,82,0.00,,FEW,0.00,0.00,VWS V14.01,2013-05-04 10:40:00,
2013-05-04 06:41:00,74.8,68.9,29.74,NW,313,4.0,10.0,82,0.00,,FEW,0.00,0.00,VWS V14.01,2013-05-04 10:41:00,
2013-05-04 06:42:00,74.8,68.6,29.74,NW,314,3.0,10.0,81,0.00,,FEW,0.00,0.00,VWS V14.01,2013-05-04 10:42:00,
2013-05-04 06:45:00,74.8,68.6,29.74,WNW,294,5.0,8.0,81,0.00,,FEW,0.00,0.00,VWS V14.01,2013-05-04 10:45:00,
2013-05-04 06:46:00,74.8,68.6,29.74,NW,306,7.0,8.0,81,0.00,,FEW,0.00,0.00,VWS V14.01,2013-05-04 10:46:00,
2013-05-04 06:47:00,74.9,68.7,29.74,WNW,299,4.0,9.0,81,0.00,,FEW,0.00,0.00,VWS V14.01,2013-05-04 10:47:00,
2013-05-04 06:50:00,74.9,68.7,29.74,NW,309,10.0,10.0,81,0.00,,FEW,0.00,5.00,VWS V14.01,2013-05-04 10:50:00,
2013-05-04 06:51:00,75.0,68.8,29.74,NNW,328,3.0,10.0,81,0.00,,FEW,0.00,5.00,VWS V14.01,2013-05-04 10:51:00,
2013-05-04 06:52:00,75.0,68.8,29.74,WNW,299,4.0,10.0,81,0.00,,FEW,0.00,7.00,VWS V14.01,2013-05-04 10:52:00,
2013-05-04 06:53:00,75.0,68.8,29.74,North,349,4.0,5.0,81,0.00,,FEW,0.00,7.00,VWS V14.01,2013-05-04 10:53:00,
2013-05-04 06:55:00,75.0,68.8,29.74,NW,308,5.0,7.0,81,0.00,,FEW,0.00,9.00,VWS V14.01,2013-05-04 10:55:00,
2013-05-04 06:56:00,75.0,68.8,29.74,WNW,293,6.0,7.0,81,0.00,,FEW,0.00,9.00,VWS V14.01,2013-05-04 10:56:00,
2013-05-04 06:57:00,75.0,69.1,29.74,West,278,4.0,7.0,82,0.00,,FEW,0.00,11.00,VWS V14.01,2013-05-04 10:57:00,
2013-05-04 06:58:00,75.0,68.8,29.74,NW,310,7.0,7.0,81,0.00,,FEW,0.00,11.00,VWS V14.01,2013-05-04 10:58:00,
2013-05-04 07:01:00,75.0,68.8,29.74,WNW,286,2.0,7.0,81,0.00,,FEW,0.00,11.00,VWS V14.01,2013-05-04 11:01:00,
2013-05-04 07:03:00,75.0,68.8,29.75,WNW,301,3.0,7.0,81,0.00,,FEW,0.00,12.00,VWS V14.01,2013-05-04 11:03:00,
2013-05-04 07:06:00,75.0,69.1,29.75,WNW,302,3.0,6.0,82,0.00,,FEW,0.00,14.00,VWS V14.01,2013-05-04 11:06:00,
2013-05-04 07:08:00,75.0,69.1,29.75,WNW,294,8.0,9.0,82,0.00,,FEW,0.00,16.00,VWS V14.01,2013-05-04 11:08:00,
2013-05-04 07:11:00,75.1,69.2,29.75,NW,312,4.0,9.0,82,0.00,,FEW,0.00,19.00,VWS V14.01,2013-05-04 11:11:00,
2013-05-04 07:13:00,75.1,69.2,29.75,NW,325,4.0,4.0,82,0.00,,FEW,0.00,28.00,VWS V14.01,2013-05-04 11:13:00,
2013-05-04 07:16:00,75.1,69.2,29.75,WNW,295,4.0,10.0,82,0.00,,FEW,0.00,30.00,VWS V14.01,2013-05-04 11:16:00,
2013-05-04 07:18:00,75.2,69.3,29.75,West,272,5.0,10.0,82,0.00,,FEW,0.00,26.00,VWS V14.01,2013-05-04 11:18:00,
2013-05-04 07:19:00,75.2,69.3,29.75,NW,307,5.0,10.0,82,0.00,,FEW,0.00,32.00,VWS V14.01,2013-05-04 11:19:00,
2013-05-04 07:21:00,75.2,69.3,29.75,NNW,338,3.0,10.0,82,0.00,,FEW,0.00,28.00,VWS V14.01,2013-05-04 11:21:00,
2013-05-04 07:22:00,75.2,69.3,29.75,WNW,296,11.0,11.0,82,0.00,,FEW,0.00,28.00,VWS V14.01,2013-05-04 11:22:00,
2013-05-04 07:23:00,75.2,69.3,29.75,WNW,293,7.0,9.0,82,0.00,,FEW,0.00,26.00,VWS V14.01,2013-05-04 11:23:00,
2013-05-04 07:24:00,75.2,69.3,29.75,NW,310,9.0,9.0,82,0.00,,FEW,0.00,26.00,VWS V14.01,2013-05-04 11:24:00,
2013-05-04 07:26:00,75.2,69.0,29.75,NW,304,3.0,9.0,81,0.00,,FEW,0.00,32.00,VWS V14.01,2013-05-04 11:26:00,
2013-05-04 07:27:00,75.2,69.0,29.75,WNW,288,4.0,9.0,81,0.00,,FEW,0.00,32.00,VWS V14.01,2013-05-04 11:27:00,
2013-05-04 07:28:00,75.2,69.0,29.75,NW,307,5.0,9.0,81,0.00,,FEW,0.00,32.00,VWS V14.01,2013-05-04 11:28:00,
2013-05-04 07:29:00,75.2,69.0,29.75,NW,308,3.0,9.0,81,0.00,,FEW,0.00,30.00,VWS V14.01,2013-05-04 11:29:00,
2013-05-04 07:31:00,75.3,69.1,29.75,NW,317,2.0,9.0,81,0.00,,FEW,0.00,44.00,VWS V14.01,2013-05-04 11:31:00,
2013-05-04 07:32:00,75.3,69.1,29.76,WNW,300,7.0,11.0,81,0.00,,FEW,0.00,44.00,VWS V14.01,2013-05-04 11:32:00,
2013-05-04 07:33:00,75.3,69.1,29.76,West,261,2.0,6.0,81,0.00,,FEW,0.00,47.00,VWS V14.01,2013-05-04 11:33:00,
2013-05-04 07:34:00,75.3,69.1,29.76,West,276,6.0,7.0,81,0.00,,FEW,0.00,56.00,VWS V14.01,2013-05-04 11:34:00,
2013-05-04 07:37:00,75.4,69.2,29.76,WNW,293,7.0,7.0,81,0.00,,FEW,0.00,74.00,VWS V14.01,2013-05-04 11:37:00,
2013-05-04 07:38:00,75.4,69.2,29.76,WNW,294,3.0,7.0,81,0.00,,FEW,0.00,90.00,VWS V14.01,2013-05-04 11:38:00,
2013-05-04 07:39:00,75.4,69.2,29.76,WNW,302,6.0,7.0,81,0.00,,FEW,0.00,116.00,VWS V14.01,2013-05-04 11:39:00,
2013-05-04 07:42:00,75.5,69.3,29.76,NW,305,4.0,10.0,81,0.00,,FEW,0.00,125.00,VWS V14.01,2013-05-04 11:42:00,
2013-05-04 07:43:00,75.6,69.4,29.76,West,275,5.0,7.0,81,0.00,,FEW,0.00,127.00,VWS V14.01,2013-05-04 11:43:00,
2013-05-04 07:44:00,75.6,69.4,29.76,WNW,289,7.0,7.0,81,0.00,,FEW,0.00,37.00,VWS V14.01,2013-05-04 11:44:00,
2013-05-04 07:47:00,75.7,69.5,29.76,WNW,292,6.0,9.0,81,0.00,,FEW,0.00,162.00,VWS V14.01,2013-05-04 11:47:00,
2013-05-04 07:48:00,75.8,69.6,29.76,WNW,283,4.0,9.0,81,0.00,,FEW,0.00,165.00,VWS V14.01,2013-05-04 11:48:00,
2013-05-04 07:50:00,75.8,69.6,29.76,WNW,291,3.0,9.0,81,0.00,,FEW,0.00,181.00,VWS V14.01,2013-05-04 11:50:00,
2013-05-04 07:52:00,75.9,69.7,29.76,NW,304,3.0,9.0,81,0.00,,FEW,0.00,153.00,VWS V14.01,2013-05-04 11:52:00,
2013-05-04 07:53:00,75.9,69.7,29.76,NW,326,2.0,3.0,81,0.00,,FEW,0.00,153.00,VWS V14.01,2013-05-04 11:53:00,
2013-05-04 07:55:00,76.0,69.8,29.76,NNW,329,4.0,6.0,81,0.00,,FEW,0.00,181.00,VWS V14.01,2013-05-04 11:55:00,
2013-05-04 07:57:00,76.1,69.8,29.76,NW,305,8.0,10.0,81,0.00,,FEW,0.00,206.00,VWS V14.01,2013-05-04 11:57:00,
2013-05-04 07:58:00,76.1,69.8,29.76,NW,324,8.0,10.0,81,0.00,,FEW,0.00,216.00,VWS V14.01,2013-05-04 11:58:00,
2013-05-04 07:59:00,76.1,69.8,29.76,WNW,303,6.0,10.0,81,0.00,,FEW,0.00,216.00,VWS V14.01,2013-05-04 11:59:00,
2013-05-04 08:00:00,76.2,69.6,29.76,WNW,294,4.0,10.0,80,0.00,,FEW,0.00,88.00,VWS V14.01,2013-05-04 12:00:00,
2013-05-04 08:03:00,76.2,69.6,29.77,WNW,302,3.0,10.0,80,0.00,,FEW,0.00,84.00,VWS V14.01,2013-05-04 12:03:00,
2013-05-04 08:04:00,76.2,69.6,29.77,WSW,252,3.0,7.0,80,0.00,,FEW,0.00,83.00,VWS V14.01,2013-05-04 12:04:00,
2013-05-04 08:06:00,76.3,69.7,29.77,NW,305,3.0,7.0,80,0.00,,FEW,0.00,81.00,VWS V14.01,2013-05-04 12:06:00,
2013-05-04 08:08:00,76.3,69.7,29.77,WNW,302,7.0,7.0,80,0.00,,FEW,0.00,102.00,VWS V14.01,2013-05-04 12:08:00,
2013-05-04 08:09:00,76.3,69.7,29.77,WNW,293,5.0,8.0,80,0.00,,FEW,0.00,102.00,VWS V14.01,2013-05-04 12:09:00,
2013-05-04 08:11:00,76.3,69.7,29.77,WNW,294,1.0,10.0,80,0.00,,FEW,0.00,202.00,VWS V14.01,2013-05-04 12:11:00,
2013-05-04 08:13:00,76.3,70.1,29.77,WNW,288,6.0,6.0,81,0.00,,FEW,0.00,54.00,VWS V14.01,2013-05-04 12:13:00,
2013-05-04 08:14:00,76.3,69.7,29.77,WNW,293,8.0,9.0,80,0.00,,FEW,0.00,118.00,VWS V14.01,2013-05-04 12:14:00,
2013-05-04 08:16:00,76.3,69.7,29.77,WNW,292,3.0,9.0,80,0.00,,FEW,0.00,262.00,VWS V14.01,2013-05-04 12:16:00,
2013-05-04 08:18:00,76.4,69.8,29.77,NW,309,5.0,9.0,80,0.00,,FEW,0.00,63.00,VWS V14.01,2013-05-04 12:18:00,
2013-05-04 08:19:00,76.4,70.1,29.77,WNW,284,4.0,9.0,81,0.00,,FEW,0.00,63.00,VWS V14.01,2013-05-04 12:19:00,
2013-05-04 08:22:00,76.5,70.2,29.77,WNW,292,6.0,9.0,81,0.00,,FEW,0.00,295.00,VWS V14.01,2013-05-04 12:22:00,
2013-05-04 08:23:00,76.6,70.3,29.77,NW,304,8.0,8.0,81,0.00,,FEW,0.00,255.00,VWS V14.01,2013-05-04 12:23:00,
2013-05-04 08:24:00,76.6,70.3,29.77,NW,306,5.0,9.0,81,0.00,,FEW,0.00,279.00,VWS V14.01,2013-05-04 12:24:00,
2013-05-04 08:25:00,76.6,70.3,29.77,WNW,288,2.0,11.0,81,0.00,,FEW,0.00,279.00,VWS V14.01,2013-05-04 12:25:00,
2013-05-04 08:27:00,76.6,70.0,29.77,North,5,3.0,11.0,80,0.00,,FEW,0.00,290.00,VWS V14.01,2013-05-04 12:27:00,
2013-05-04 08:28:00,76.6,70.0,29.77,NW,308,5.0,11.0,80,0.00,,FEW,0.00,292.00,VWS V14.01,2013-05-04 12:28:00,
2013-05-04 08:29:00,76.6,70.0,29.77,West,267,4.0,11.0,80,0.00,,FEW,0.00,297.00,VWS V14.01,2013-05-04 12:29:00,
2013-05-04 08:30:00,76.7,70.1,29.77,NW,308,8.0,11.0,80,0.00,,FEW,0.00,301.00,VWS V14.01,2013-05-04 12:30:00,
2013-05-04 08:33:00,76.7,70.1,29.77,West,281,4.0,4.0,80,0.00,,FEW,0.00,316.00,VWS V14.01,2013-05-04 12:33:00,
2013-05-04 08:34:00,76.7,69.7,29.77,West,269,5.0,10.0,79,0.00,,FEW,0.00,241.00,VWS V14.01,2013-05-04 12:34:00,
2013-05-04 08:35:00,76.7,69.7,29.77,WSW,257,8.0,10.0,79,0.00,,FEW,0.00,359.00,VWS V14.01,2013-05-04 12:35:00,
2013-05-04 08:38:00,76.8,69.8,29.77,WNW,286,7.0,10.0,79,0.00,,FEW,0.00,376.00,VWS V14.01,2013-05-04 12:38:00,
2013-05-04 08:39:00,76.9,69.9,29.77,WNW,302,7.0,10.0,79,0.00,,FEW,0.00,142.00,VWS V14.01,2013-05-04 12:39:00,
2013-05-04 08:40:00,76.9,69.9,29.77,NW,325,5.0,10.0,79,0.00,,FEW,0.00,142.00,VWS V14.01,2013-05-04 12:40:00,
2013-05-04 08:43:00,77.0,70.4,29.77,NNW,331,4.0,5.0,80,0.00,,FEW,0.00,221.00,VWS V14.01,2013-05-04 12:43:00,
2013-05-04 08:44:00,77.1,70.5,29.77,WNW,287,3.0,8.0,80,0.00,,FEW,0.00,93.00,VWS V14.01,2013-05-04 12:44:00,
2013-05-04 08:46:00,77.1,70.1,29.77,NW,313,7.0,12.0,79,0.00,,FEW,0.00,81.00,VWS V14.01,2013-05-04 12:46:00,
2013-05-04 08:48:00,77.0,70.0,29.77,West,274,2.0,12.0,79,0.00,,FEW,0.00,116.00,VWS V14.01,2013-05-04 12:48:00,
2013-05-04 08:49:00,76.9,69.9,29.77,West,280,5.0,12.0,79,0.00,,FEW,0.00,116.00,VWS V14.01,2013-05-04 12:49:00,
2013-05-04 08:51:00,77.0,70.0,29.77,SW,236,5.0,12.0,79,0.00,,FEW,0.00,468.00,VWS V14.01,2013-05-04 12:51:00,
2013-05-04 08:53:00,77.1,70.1,29.77,NW,313,7.0,7.0,79,0.00,,FEW,0.00,468.00,VWS V14.01,2013-05-04 12:53:00,
2013-05-04 08:54:00,77.1,70.1,29.77,West,263,4.0,8.0,79,0.00,,FEW,0.00,127.00,VWS V14.01,2013-05-04 12:54:00,
2013-05-04 08:56:00,77.1,70.1,29.77,WNW,303,5.0,11.0,79,0.00,,FEW,0.00,98.00,VWS V14.01,2013-05-04 12:56:00,
2013-05-04 08:58:00,77.2,70.2,29.77,NW,310,9.0,11.0,79,0.00,,FEW,0.00,183.00,VWS V14.01,2013-05-04 12:58:00,
2013-05-04 08:59:00,77.3,70.3,29.77,WNW,296,4.0,11.0,79,0.00,,FEW,0.00,459.00,VWS V14.01,2013-05-04 12:59:00,
2013-05-04 09:01:00,77.4,70.8,29.77,WNW,290,6.0,11.0,80,0.00,,FEW,0.00,462.00,VWS V14.01,2013-05-04 13:01:00,
2013-05-04 09:03:00,77.5,70.8,29.77,WSW,249,3.0,4.0,80,0.00,,FEW,0.00,462.00,VWS V14.01,2013-05-04 13:03:00,
2013-05-04 09:04:00,77.5,70.8,29.77,WNW,300,5.0,8.0,80,0.00,,FEW,0.00,462.00,VWS V14.01,2013-05-04 13:04:00,
2013-05-04 09:05:00,77.5,70.8,29.77,NW,310,6.0,8.0,80,0.00,,FEW,0.00,462.00,VWS V14.01,2013-05-04 13:05:00,
2013-05-04 09:06:00,77.6,70.9,29.77,WNW,296,5.0,8.0,80,0.00,,FEW,0.00,438.00,VWS V14.01,2013-05-04 13:06:00,
2013-05-04 09:08:00,77.6,70.6,29.77,WNW,283,2.0,8.0,79,0.00,,FEW,0.00,438.00,VWS V14.01,2013-05-04 13:08:00,
2013-05-04 09:09:00,77.7,70.7,29.77,West,272,2.0,8.0,79,0.00,,FEW,0.00,461.00,VWS V14.01,2013-05-04 13:09:00,
2013-05-04 09:10:00,77.8,70.8,29.77,NW,317,8.0,10.0,79,0.00,,FEW,0.00,468.00,VWS V14.01,2013-05-04 13:10:00,
2013-05-04 09:11:00,77.9,70.9,29.77,WSW,241,6.0,10.0,79,0.00,,FEW,0.00,473.00,VWS V14.01,2013-05-04 13:11:00,
2013-05-04 09:13:00,78.0,70.6,29.77,NW,306,7.0,11.0,78,0.00,,FEW,0.00,434.00,VWS V14.01,2013-05-04 13:13:00,
2013-05-04 09:14:00,78.0,70.6,29.77,West,271,4.0,11.0,78,0.00,,FEW,0.00,492.00,VWS V14.01,2013-05-04 13:14:00,
2013-05-04 09:15:00,78.1,70.7,29.77,WSW,257,7.0,11.0,78,0.00,,FEW,0.00,503.00,VWS V14.01,2013-05-04 13:15:00,
2013-05-04 09:16:00,78.2,70.8,29.77,NW,304,4.0,11.0,78,0.00,,FEW,0.00,524.00,VWS V14.01,2013-05-04 13:16:00,
2013-05-04 09:18:00,78.4,71.0,29.77,NW,307,4.0,11.0,78,0.00,,FEW,0.00,585.00,VWS V14.01,2013-05-04 13:18:00,
2013-05-04 09:19:00,78.5,71.1,29.77,WNW,300,5.0,11.0,78,0.00,,FEW,0.00,585.00,VWS V14.01,2013-05-04 13:19:00,
2013-05-04 09:20:00,78.7,71.3,29.77,NW,321,3.0,11.0,78,0.00,,FEW,0.00,585.00,VWS V14.01,2013-05-04 13:20:00,
2013-05-04 09:21:00,78.8,71.4,29.77,WNW,290,2.0,11.0,78,0.00,,FEW,0.00,585.00,VWS V14.01,2013-05-04 13:21:00,
2013-05-04 09:24:00,79.1,71.7,29.77,NW,310,5.0,8.0,78,0.00,,FEW,0.00,582.00,VWS V14.01,2013-05-04 13:24:00,
2013-05-04 09:25:00,79.1,71.3,29.77,SW,235,3.0,10.0,77,0.00,,FEW,0.00,582.00,VWS V14.01,2013-05-04 13:25:00,
2013-05-04 09:26:00,79.1,70.9,29.77,WNW,301,4.0,10.0,76,0.00,,FEW,0.00,582.00,VWS V14.01,2013-05-04 13:26:00,
2013-05-04 09:29:00,79.0,70.8,29.77,WNW,302,9.0,14.0,76,0.00,,FEW,0.00,554.00,VWS V14.01,2013-05-04 13:29:00,
2013-05-04 09:30:00,78.9,70.7,29.77,WNW,296,3.0,14.0,76,0.00,,FEW,0.00,554.00,VWS V14.01,2013-05-04 13:30:00,
2013-05-04 09:32:00,78.9,70.7,29.77,NW,306,3.0,14.0,76,0.00,,FEW,0.00,554.00,VWS V14.01,2013-05-04 13:32:00,
2013-05-04 09:34:00,79.1,71.3,29.77,WNW,290,9.0,11.0,77,0.00,,FEW,0.00,622.00,VWS V14.01,2013-05-04 13:34:00,
2013-05-04 09:35:00,79.2,71.4,29.77,WNW,296,6.0,11.0,77,0.00,,FEW,0.00,622.00,VWS V14.01,2013-05-04 13:35:00,
2013-05-04 09:36:00,79.2,71.4,29.77,WNW,299,6.0,11.0,77,0.00,,FEW,0.00,622.00,VWS V14.01,2013-05-04 13:36:00,
2013-05-04 09:37:00,79.3,71.5,29.77,North,355,7.0,11.0,77,0.00,,FEW,0.00,622.00,VWS V14.01,2013-05-04 13:37:00,
2013-05-04 09:39:00,79.3,71.1,29.77,WNW,300,2.0,12.0,76,0.00,,FEW,0.00,95.00,VWS V14.01,2013-05-04 13:39:00,
2013-05-04 09:40:00,79.2,71.0,29.77,NW,304,3.0,12.0,76,0.00,,FEW,0.00,91.00,VWS V14.01,2013-05-04 13:40:00,
2013-05-04 09:41:00,79.1,70.9,29.77,WNW,289,2.0,12.0,76,0.00,,FEW,0.00,91.00,VWS V14.01,2013-05-04 13:41:00,
2013-05-04 09:42:00,79.1,71.3,29.77,West,261,3.0,12.0,77,0.00,,FEW,0.00,582.00,VWS V14.01,2013-05-04 13:42:00,
2013-05-04 09:44:00,79.2,71.4,29.77,WNW,288,8.0,11.0,77,0.00,,FEW,0.00,594.00,VWS V14.01,2013-05-04 13:44:00,
2013-05-04 09:45:00,79.2,71.4,29.77,WNW,301,6.0,11.0,77,0.00,,FEW,0.00,594.00,VWS V14.01,2013-05-04 13:45:00,
2013-05-04 09:46:00,79.2,71.4,29.77,WNW,294,6.0,11.0,77,0.00,,FEW,0.00,635.00,VWS V14.01,2013-05-04 13:46:00,
2013-05-04 09:47:00,79.4,71.6,29.78,NW,317,5.0,11.0,77,0.00,,FEW,0.00,606.00,VWS V14.01,2013-05-04 13:47:00,
2013-05-04 09:49:00,79.7,71.9,29.78,WNW,298,7.0,11.0,77,0.00,,FEW,0.00,587.00,VWS V14.01,2013-05-04 13:49:00,
2013-05-04 09:50:00,79.7,71.9,29.78,WNW,292,5.0,11.0,77,0.00,,FEW,0.00,587.00,VWS V14.01,2013-05-04 13:50:00,
2013-05-04 09:51:00,79.8,71.6,29.78,West,277,5.0,11.0,76,0.00,,FEW,0.00,622.00,VWS V14.01,2013-05-04 13:51:00,
2013-05-04 09:52:00,79.8,71.6,29.78,West,260,4.0,11.0,76,0.00,,FEW,0.00,599.00,VWS V14.01,2013-05-04 13:52:00,
2013-05-04 09:54:00,80.0,71.4,29.78,WNW,291,5.0,9.0,75,0.00,,FEW,0.00,598.00,VWS V14.01,2013-05-04 13:54:00,
2013-05-04 09:55:00,79.9,71.3,29.78,NW,304,3.0,9.0,75,0.00,,FEW,0.00,599.00,VWS V14.01,2013-05-04 13:55:00,
2013-05-04 09:56:00,80.0,71.4,29.78,West,278,4.0,9.0,75,0.00,,FEW,0.00,603.00,VWS V14.01,2013-05-04 13:56:00,
2013-05-04 09:57:00,80.0,71.0,29.78,West,269,6.0,12.0,74,0.00,,FEW,0.00,591.00,VWS V14.01,2013-05-04 13:57:00,
2013-05-04 09:59:00,80.2,71.2,29.78,WNW,283,8.0,12.0,74,0.00,,FEW,0.00,629.00,VWS V14.01,2013-05-04 13:59:00,
2013-05-04 10:00:00,80.2,71.2,29.78,WSW,238,3.0,12.0,74,0.00,,FEW,0.00,629.00,VWS V14.01,2013-05-04 14:00:00,
2013-05-04 10:01:00,80.2,70.8,29.78,WNW,295,7.0,12.0,73,0.00,,FEW,0.00,649.00,VWS V14.01,2013-05-04 14:01:00,
2013-05-04 10:02:00,80.3,71.3,29.78,NW,324,5.0,12.0,74,0.00,,FEW,0.00,708.00,VWS V14.01,2013-05-04 14:02:00,
2013-05-04 10:05:00,80.5,71.5,29.78,West,275,4.0,9.0,74,0.00,,FEW,0.00,761.00,VWS V14.01,2013-05-04 14:05:00,
2013-05-04 10:06:00,80.6,71.6,29.78,WNW,286,2.0,9.0,74,0.00,,FEW,0.00,761.00,VWS V14.01,2013-05-04 14:06:00,
2013-05-04 10:08:00,80.7,72.0,29.78,WNW,287,7.0,10.0,75,0.00,,FEW,0.00,868.00,VWS V14.01,2013-05-04 14:08:00,
2013-05-04 10:10:00,80.7,71.7,29.78,West,281,3.0,14.0,74,0.00,,FEW,0.00,868.00,VWS V14.01,2013-05-04 14:10:00,
2013-05-04 10:11:00,80.6,71.6,29.78,NW,313,4.0,14.0,74,0.00,,FEW,0.00,134.00,VWS V14.01,2013-05-04 14:11:00,
2013-05-04 10:13:00,80.5,71.5,29.78,West,267,4.0,14.0,74,0.00,,FEW,0.00,125.00,VWS V14.01,2013-05-04 14:13:00,
2013-05-04 10:15:00,80.2,71.2,29.78,WNW,298,2.0,10.0,74,0.00,,FEW,0.00,684.00,VWS V14.01,2013-05-04 14:15:00,
2013-05-04 10:16:00,80.3,71.7,29.78,West,262,3.0,10.0,75,0.00,,FEW,0.00,700.00,VWS V14.01,2013-05-04 14:16:00,
2013-05-04 10:17:00,80.3,71.7,29.79,NNW,332,4.0,10.0,75,0.00,,FEW,0.00,691.00,VWS V14.01,2013-05-04 14:17:00,
2013-05-04 10:18:00,80.4,71.4,29.79,WNW,286,6.0,11.0,74,0.00,,FEW,0.00,680.00,VWS V14.01,2013-05-04 14:18:00,
2013-05-04 10:20:00,80.4,71.4,29.79,NW,311,11.0,13.0,74,0.00,,FEW,0.00,700.00,VWS V14.01,2013-05-04 14:20:00,
2013-05-04 10:21:00,80.5,71.5,29.79,NW,316,5.0,13.0,74,0.00,,FEW,0.00,744.00,VWS V14.01,2013-05-04 14:21:00,
2013-05-04 10:22:00,80.5,71.5,29.79,WNW,303,5.0,13.0,74,0.00,,FEW,0.00,744.00,VWS V14.01,2013-05-04 14:22:00,
2013-05-04 10:23:00,80.6,71.9,29.79,WNW,296,7.0,7.0,75,0.00,,FEW,0.00,364.00,VWS V14.01,2013-05-04 14:23:00,
2013-05-04 10:25:00,80.7,71.7,29.79,WNW,296,7.0,9.0,74,0.00,,FEW,0.00,714.00,VWS V14.01,2013-05-04 14:25:00,
2013-05-04 10:26:00,80.7,71.7,29.79,WNW,282,4.0,9.0,74,0.00,,FEW,0.00,738.00,VWS V14.01,2013-05-04 14:26:00,
2013-05-04 10:27:00,80.8,71.7,29.79,NNW,343,6.0,10.0,74,0.00,,FEW,0.00,747.00,VWS V14.01,2013-05-04 14:27:00,
2013-05-04 10:28:00,80.8,71.7,29.79,NW,321,7.0,10.0,74,0.00,,FEW,0.00,742.00,VWS V14.01,2013-05-04 14:28:00,
2013-05-04 10:30:00,80.9,71.8,29.79,NW,309,8.0,12.0,74,0.00,,FEW,0.00,782.00,VWS V14.01,2013-05-04 14:30:00,
2013-05-04 10:31:00,81.0,71.9,29.79,WNW,296,5.0,12.0,74,0.00,,FEW,0.00,782.00,VWS V14.01,2013-05-04 14:31:00,
2013-05-04 10:32:00,81.0,71.5,29.79,NW,325,5.0,12.0,73,0.00,,FEW,0.00,751.00,VWS V14.01,2013-05-04 14:32:00,
2013-05-04 10:33:00,81.0,71.5,29.79,WNW,294,5.0,5.0,73,0.00,,FEW,0.00,751.00,VWS V14.01,2013-05-04 14:33:00,
2013-05-04 10:35:00,81.1,71.6,29.79,WNW,296,8.0,11.0,73,0.00,,FEW,0.00,700.00,VWS V14.01,2013-05-04 14:35:00,
2013-05-04 10:36:00,81.1,71.6,29.79,NW,306,4.0,11.0,73,0.00,,FEW,0.00,700.00,VWS V14.01,2013-05-04 14:36:00,
2013-05-04 10:37:00,81.0,71.5,29.79,West,260,10.0,11.0,73,0.00,,FEW,0.00,700.00,VWS V14.01,2013-05-04 14:37:00,
2013-05-04 10:38:00,81.0,71.5,29.79,West,269,7.0,11.0,73,0.00,,FEW,0.00,700.00,VWS V14.01,2013-05-04 14:38:00,
2013-05-04 10:40:00,80.7,71.2,29.79,NW,308,9.0,12.0,73,0.00,,FEW,0.00,738.00,VWS V14.01,2013-05-04 14:40:00,
2013-05-04 10:41:00,80.6,71.2,29.79,WNW,300,4.0,12.0,73,0.00,,FEW,0.00,740.00,VWS V14.01,2013-05-04 14:41:00,
2013-05-04 10:42:00,80.6,71.6,29.79,WNW,282,5.0,12.0,74,0.00,,FEW,0.00,770.00,VWS V14.01,2013-05-04 14:42:00,
2013-05-04 10:43:00,80.6,71.6,29.79,WSW,242,5.0,12.0,74,0.00,,FEW,0.00,770.00,VWS V14.01,2013-05-04 14:43:00,
2013-05-04 10:45:00,80.8,71.7,29.79,NW,312,4.0,11.0,74,0.00,,FEW,0.00,763.00,VWS V14.01,2013-05-04 14:45:00,
2013-05-04 10:46:00,80.9,71.8,29.79,NW,318,6.0,11.0,74,0.00,,FEW,0.00,763.00,VWS V14.01,2013-05-04 14:46:00,
2013-05-04 10:47:00,81.0,71.9,29.79,West,279,4.0,11.0,74,0.00,,FEW,0.00,798.00,VWS V14.01,2013-05-04 14:47:00,
2013-05-04 10:48:00,81.0,71.9,29.79,West,267,6.0,11.0,74,0.00,,FEW,0.00,798.00,VWS V14.01,2013-05-04 14:48:00,
2013-05-04 10:51:00,81.0,71.9,29.79,WSW,248,4.0,11.0,74,0.00,,FEW,0.00,763.00,VWS V14.01,2013-05-04 14:51:00,
2013-05-04 10:53:00,81.1,71.6,29.79,WNW,303,7.0,7.0,73,0.00,,FEW,0.00,772.00,VWS V14.01,2013-05-04 14:53:00,
2013-05-04 10:56:00,81.2,71.3,29.79,WNW,290,11.0,11.0,72,0.00,,FEW,0.00,851.00,VWS V14.01,2013-05-04 14:56:00,
2013-05-04 10:58:00,81.1,71.2,29.79,West,267,10.0,11.0,72,0.00,,FEW,0.00,796.00,VWS V14.01,2013-05-04 14:58:00,
2013-05-04 11:01:00,81.2,70.9,29.79,West,278,8.0,15.0,71,0.00,,FEW,0.00,807.00,VWS V14.01,2013-05-04 15:01:00,
2013-05-04 11:02:00,81.2,71.3,29.79,NNW,336,9.0,15.0,72,0.00,,FEW,0.00,805.00,VWS V14.01,2013-05-04 15:02:00,
2013-05-04 11:03:00,81.3,71.4,29.79,NW,306,5.0,10.0,72,0.00,,FEW,0.00,795.00,VWS V14.01,2013-05-04 15:03:00,
2013-05-04 11:06:00,81.5,71.6,29.79,NW,325,8.0,10.0,72,0.00,,FEW,0.00,805.00,VWS V14.01,2013-05-04 15:06:00,
2013-05-04 11:07:00,81.5,71.6,29.79,WNW,285,6.0,10.0,72,0.00,,FEW,0.00,826.00,VWS V14.01,2013-05-04 15:07:00,
2013-05-04 11:08:00,81.5,71.6,29.79,WNW,294,4.0,14.0,72,0.00,,FEW,0.00,828.00,VWS V14.01,2013-05-04 15:08:00,
2013-05-04 11:12:00,81.4,71.5,29.79,NW,311,8.0,14.0,72,0.00,,FEW,0.00,881.00,VWS V14.01,2013-05-04 15:12:00,
2013-05-04 11:13:00,81.6,71.3,29.79,NW,306,6.0,12.0,71,0.00,,FEW,0.00,872.00,VWS V14.01,2013-05-04 15:13:00,
2013-05-04 11:14:00,81.6,71.3,29.79,NW,324,3.0,12.0,71,0.00,,FEW,0.00,872.00,VWS V14.01,2013-05-04 15:14:00,
2013-05-04 11:17:00,82.1,71.8,29.79,NNW,338,16.0,16.0,71,0.00,,FEW,0.00,861.00,VWS V14.01,2013-05-04 15:17:00,
2013-05-04 11:19:00,82.0,71.7,29.79,West,267,7.0,16.0,71,0.00,,FEW,0.00,861.00,VWS V14.01,2013-05-04 15:19:00,
2013-05-04 11:22:00,81.8,71.1,29.79,WSW,242,4.0,16.0,70,0.00,,FEW,0.00,847.00,VWS V14.01,2013-05-04 15:22:00,
2013-05-04 11:24:00,81.6,70.9,29.79,West,272,8.0,10.0,70,0.00,,FEW,0.00,888.00,VWS V14.01,2013-05-04 15:24:00,
2013-05-04 11:27:00,81.5,71.2,29.79,West,279,7.0,12.0,71,0.00,,FEW,0.00,888.00,VWS V14.01,2013-05-04 15:27:00,
2013-05-04 11:28:00,81.6,71.3,29.79,NW,311,6.0,12.0,71,0.00,,FEW,0.00,888.00,VWS V14.01,2013-05-04 15:28:00,
2013-05-04 11:29:00,81.6,71.3,29.79,West,272,4.0,12.0,71,0.00,,FEW,0.00,888.00,VWS V14.01,2013-05-04 15:29:00,
2013-05-04 11:32:00,81.6,71.3,29.80,WNW,287,4.0,13.0,71,0.00,,FEW,0.00,197.00,VWS V14.01,2013-05-04 15:32:00,
2013-05-04 11:33:00,81.5,71.2,29.80,WNW,284,9.0,9.0,71,0.00,,FEW,0.00,197.00,VWS V14.01,2013-05-04 15:33:00,
2013-05-04 11:34:00,81.3,71.0,29.80,WNW,295,10.0,10.0,71,0.00,,FEW,0.00,197.00,VWS V14.01,2013-05-04 15:34:00,
2013-05-04 11:37:00,81.2,71.3,29.80,WNW,296,6.0,13.0,72,0.00,,FEW,0.00,1018.00,VWS V14.01,2013-05-04 15:37:00,
2013-05-04 11:38:00,81.2,71.3,29.80,WNW,284,8.0,13.0,72,0.00,,FEW,0.00,1018.00,VWS V14.01,2013-05-04 15:38:00,
2013-05-04 11:39:00,81.1,70.8,29.80,WSW,238,6.0,13.0,71,0.00,,FEW,0.00,1018.00,VWS V14.01,2013-05-04 15:39:00,
2013-05-04 11:40:00,81.0,71.1,29.80,NW,306,5.0,13.0,72,0.00,,FEW,0.00,1018.00,VWS V14.01,2013-05-04 15:40:00,
2013-05-04 11:42:00,80.9,71.4,29.80,WNW,290,10.0,15.0,73,0.00,,FEW,0.00,1018.00,VWS V14.01,2013-05-04 15:42:00,
2013-05-04 11:43:00,80.9,71.4,29.80,NW,307,8.0,12.0,73,0.00,,FEW,0.00,930.00,VWS V14.01,2013-05-04 15:43:00,
2013-05-04 11:44:00,81.0,71.5,29.80,West,279,10.0,12.0,73,0.00,,FEW,0.00,930.00,VWS V14.01,2013-05-04 15:44:00,
2013-05-04 11:45:00,81.0,71.5,29.80,WSW,252,8.0,13.0,73,0.00,,FEW,0.00,930.00,VWS V14.01,2013-05-04 15:45:00,
2013-05-04 11:47:00,81.1,71.6,29.79,NW,317,8.0,13.0,73,0.00,,FEW,0.00,1041.00,VWS V14.01,2013-05-04 15:47:00,
2013-05-04 11:48:00,81.1,71.6,29.79,West,275,5.0,13.0,73,0.00,,FEW,0.00,1041.00,VWS V14.01,2013-05-04 15:48:00,
2013-05-04 11:49:00,81.2,71.7,29.79,West,263,5.0,15.0,73,0.00,,FEW,0.00,1041.00,VWS V14.01,2013-05-04 15:49:00,
2013-05-04 11:50:00,81.2,71.7,29.79,NW,309,8.0,15.0,73,0.00,,FEW,0.00,1041.00,VWS V14.01,2013-05-04 15:50:00,
2013-05-04 11:51:00,81.1,71.2,29.79,WNW,298,5.0,15.0,72,0.00,,FEW,0.00,171.00,VWS V14.01,2013-05-04 15:51:00,
2013-05-04 11:52:00,81.1,71.2,29.79,WNW,290,10.0,15.0,72,0.00,,FEW,0.00,171.00,VWS V14.01,2013-05-04 15:52:00,
2013-05-04 11:53:00,81.1,71.2,29.79,NNW,329,6.0,12.0,72,0.00,,FEW,0.00,949.00,VWS V14.01,2013-05-04 15:53:00,
2013-05-04 11:54:00,81.1,71.2,29.79,WSW,254,7.0,12.0,72,0.00,,FEW,0.00,972.00,VWS V14.01,2013-05-04 15:54:00,
2013-05-04 11:55:00,81.2,71.3,29.79,NW,317,8.0,12.0,72,0.00,,FEW,0.00,972.00,VWS V14.01,2013-05-04 15:55:00,
2013-05-04 11:56:00,81.2,71.3,29.79,NW,322,8.0,12.0,72,0.00,,FEW,0.00,972.00,VWS V14.01,2013-05-04 15:56:00,
2013-05-04 11:58:00,81.3,71.4,29.79,NW,319,11.0,14.0,72,0.00,,FEW,0.00,919.00,VWS V14.01,2013-05-04 15:58:00,
2013-05-04 11:59:00,81.4,71.1,29.79,WNW,289,4.0,14.0,71,0.00,,FEW,0.00,932.00,VWS V14.01,2013-05-04 15:59:00,
2013-05-04 12:00:00,81.5,71.6,29.79,NNW,327,7.0,14.0,72,0.00,,FEW,0.00,932.00,VWS V14.01,2013-05-04 16:00:00,
2013-05-04 12:01:00,81.6,71.7,29.79,WNW,289,6.0,14.0,72,0.00,,FEW,0.00,974.00,VWS V14.01,2013-05-04 16:01:00,
2013-05-04 12:03:00,81.8,71.9,29.79,WNW,285,5.0,8.0,72,0.00,,FEW,0.00,947.00,VWS V14.01,2013-05-04 16:03:00,
2013-05-04 12:04:00,81.7,71.4,29.79,WNW,302,4.0,13.0,71,0.00,,FEW,0.00,958.00,VWS V14.01,2013-05-04 16:04:00,
2013-05-04 12:05:00,81.8,71.5,29.79,WNW,299,9.0,13.0,71,0.00,,FEW,0.00,926.00,VWS V14.01,2013-05-04 16:05:00,
2013-05-04 12:06:00,81.8,71.5,29.79,WNW,288,8.0,13.0,71,0.00,,FEW,0.00,919.00,VWS V14.01,2013-05-04 16:06:00,
2013-05-04 12:08:00,82.0,71.3,29.79,NW,317,11.0,13.0,70,0.00,,FEW,0.00,923.00,VWS V14.01,2013-05-04 16:08:00,
2013-05-04 12:09:00,82.0,71.3,29.79,NW,307,7.0,13.0,70,0.00,,FEW,0.00,923.00,VWS V14.01,2013-05-04 16:09:00,
2013-05-04 12:10:00,82.0,70.8,29.79,NW,304,6.0,13.0,69,0.00,,FEW,0.00,926.00,VWS V14.01,2013-05-04 16:10:00,
2013-05-04 12:11:00,82.0,71.3,29.79,West,273,8.0,13.0,70,0.00,,FEW,0.00,928.00,VWS V14.01,2013-05-04 16:11:00,
2013-05-04 12:14:00,81.8,71.1,29.79,NW,313,11.0,13.0,70,0.00,,FEW,0.00,928.00,VWS V14.01,2013-05-04 16:14:00,
2013-05-04 12:15:00,81.7,70.6,29.79,NNW,329,4.0,13.0,69,0.00,,FEW,0.00,967.00,VWS V14.01,2013-05-04 16:15:00,
2013-05-04 12:16:00,81.8,71.1,29.79,NNW,336,7.0,14.0,70,0.00,,FEW,0.00,967.00,VWS V14.01,2013-05-04 16:16:00,
2013-05-04 12:19:00,82.0,71.3,29.79,NW,321,10.0,14.0,70,0.00,,FEW,0.00,935.00,VWS V14.01,2013-05-04 16:19:00,
2013-05-04 12:20:00,82.1,70.5,29.79,WNW,284,6.0,14.0,68,0.00,,FEW,0.00,933.00,VWS V14.01,2013-05-04 16:20:00,
2013-05-04 12:21:00,82.2,70.6,29.79,WNW,292,7.0,14.0,68,0.00,,FEW,0.00,939.00,VWS V14.01,2013-05-04 16:21:00,
2013-05-04 12:24:00,82.2,70.6,29.79,NW,317,6.0,13.0,68,0.00,,FEW,0.00,939.00,VWS V14.01,2013-05-04 16:24:00,
2013-05-04 12:25:00,82.1,70.9,29.79,WNW,284,6.0,13.0,69,0.00,,FEW,0.00,939.00,VWS V14.01,2013-05-04 16:25:00,
2013-05-04 12:26:00,82.1,70.9,29.79,WNW,286,9.0,13.0,69,0.00,,FEW,0.00,942.00,VWS V14.01,2013-05-04 16:26:00,
2013-05-04 12:29:00,81.8,70.6,29.79,SW,231,6.0,13.0,69,0.00,,FEW,0.00,944.00,VWS V14.01,2013-05-04 16:29:00,
2013-05-04 12:30:00,81.8,70.6,29.79,WNW,291,8.0,13.0,69,0.00,,FEW,0.00,947.00,VWS V14.01,2013-05-04 16:30:00,
2013-05-04 12:31:00,81.8,70.6,29.79,NW,317,12.0,13.0,69,0.00,,FEW,0.00,947.00,VWS V14.01,2013-05-04 16:31:00,
2013-05-04 12:32:00,81.9,70.7,29.79,WNW,297,6.0,13.0,69,0.00,,FEW,0.00,947.00,VWS V14.01,2013-05-04 16:32:00,
2013-05-04 12:34:00,81.9,71.2,29.79,NW,305,7.0,9.0,70,0.00,,FEW,0.00,953.00,VWS V14.01,2013-05-04 16:34:00,
2013-05-04 12:35:00,82.0,71.3,29.79,WNW,284,12.0,12.0,70,0.00,,FEW,0.00,953.00,VWS V14.01,2013-05-04 16:35:00,
2013-05-04 12:36:00,82.1,71.3,29.79,WNW,286,1.0,12.0,70,0.00,,FEW,0.00,954.00,VWS V14.01,2013-05-04 16:36:00,
2013-05-04 12:37:00,82.4,72.1,29.79,NW,323,11.0,12.0,71,0.00,,FEW,0.00,965.00,VWS V14.01,2013-05-04 16:37:00,
2013-05-04 12:39:00,82.3,70.3,29.79,NNW,343,7.0,16.0,67,0.00,,FEW,0.00,988.00,VWS V14.01,2013-05-04 16:39:00,
2013-05-04 12:40:00,82.3,70.3,29.79,WNW,292,7.0,16.0,67,0.00,,FEW,0.00,1004.00,VWS V14.01,2013-05-04 16:40:00,
2013-05-04 12:41:00,82.2,70.6,29.79,NNE,25,3.0,16.0,68,0.00,,FEW,0.00,998.00,VWS V14.01,2013-05-04 16:41:00,
2013-05-04 12:42:00,82.2,70.6,29.79,WNW,286,9.0,16.0,68,0.00,,FEW,0.00,981.00,VWS V14.01,2013-05-04 16:42:00,
2013-05-04 12:44:00,82.1,70.5,29.79,NW,306,14.0,14.0,68,0.00,,FEW,0.00,976.00,VWS V14.01,2013-05-04 16:44:00,
2013-05-04 12:45:00,82.1,70.5,29.79,West,275,5.0,14.0,68,0.00,,FEW,0.00,969.00,VWS V14.01,2013-05-04 16:45:00,
2013-05-04 12:46:00,82.2,70.6,29.79,West,266,8.0,14.0,68,0.00,,FEW,0.00,963.00,VWS V14.01,2013-05-04 16:46:00,
2013-05-04 12:48:00,82.2,70.6,29.79,NW,321,3.0,14.0,68,0.00,,FEW,0.00,977.00,VWS V14.01,2013-05-04 16:48:00,
2013-05-04 12:49:00,82.3,71.1,29.79,WNW,292,7.0,14.0,69,0.00,,FEW,0.00,940.00,VWS V14.01,2013-05-04 16:49:00,
2013-05-04 12:50:00,82.4,71.2,29.79,WNW,298,5.0,14.0,69,0.00,,FEW,0.00,974.00,VWS V14.01,2013-05-04 16:50:00,
2013-05-04 12:51:00,82.6,71.4,29.79,WNW,291,10.0,14.0,69,0.00,,FEW,0.00,963.00,VWS V14.01,2013-05-04 16:51:00,
2013-05-04 12:53:00,82.7,71.5,29.79,NW,313,9.0,14.0,69,0.00,,FEW,0.00,926.00,VWS V14.01,2013-05-04 16:53:00,
2013-05-04 12:54:00,82.5,71.3,29.79,WSW,240,4.0,16.0,69,0.00,,FEW,0.00,974.00,VWS V14.01,2013-05-04 16:54:00,
2013-05-04 12:56:00,82.1,70.5,29.79,WNW,294,7.0,16.0,68,0.00,,FEW,0.00,1002.00,VWS V14.01,2013-05-04 16:56:00,
2013-05-04 12:58:00,82.0,70.8,29.79,WNW,292,6.0,16.0,69,0.00,,FEW,0.00,1074.00,VWS V14.01,2013-05-04 16:58:00,
2013-05-04 12:59:00,82.1,70.9,29.79,West,273,9.0,17.0,69,0.00,,FEW,0.00,1032.00,VWS V14.01,2013-05-04 16:59:00,
2013-05-04 13:01:00,82.2,70.6,29.79,NNW,334,6.0,17.0,68,0.00,,FEW,0.00,1007.00,VWS V14.01,2013-05-04 17:01:00,
2013-05-04 13:02:00,82.3,70.7,29.79,NW,306,5.0,17.0,68,0.00,,FEW,0.00,1014.00,VWS V14.01,2013-05-04 17:02:00,
2013-05-04 13:03:00,82.4,70.8,29.79,NW,307,10.0,10.0,68,0.00,,FEW,0.00,1013.00,VWS V14.01,2013-05-04 17:03:00,
2013-05-04 13:04:00,82.5,70.9,29.79,West,281,12.0,12.0,68,0.00,,FEW,0.00,1005.00,VWS V14.01,2013-05-04 17:04:00,
2013-05-04 13:06:00,82.5,70.9,29.79,WNW,300,10.0,15.0,68,0.00,,FEW,0.00,1009.00,VWS V14.01,2013-05-04 17:06:00,
2013-05-04 13:07:00,82.5,70.9,29.79,WNW,294,4.0,15.0,68,0.00,,FEW,0.00,1020.00,VWS V14.01,2013-05-04 17:07:00,
2013-05-04 13:09:00,82.4,70.8,29.79,WNW,300,11.0,15.0,68,0.00,,FEW,0.00,1039.00,VWS V14.01,2013-05-04 17:09:00,
2013-05-04 13:10:00,82.5,71.3,29.79,NW,305,11.0,15.0,69,0.00,,FEW,0.00,399.00,VWS V14.01,2013-05-04 17:10:00,
2013-05-04 13:11:00,82.4,71.2,29.79,NW,314,6.0,15.0,69,0.00,,FEW,0.00,972.00,VWS V14.01,2013-05-04 17:11:00,
2013-05-04 13:12:00,82.3,71.1,29.79,WNW,288,5.0,15.0,69,0.00,,FEW,0.00,972.00,VWS V14.01,2013-05-04 17:12:00,
2013-05-04 13:14:00,82.3,71.1,29.79,NW,324,5.0,10.0,69,0.00,,FEW,0.00,1014.00,VWS V14.01,2013-05-04 17:14:00,
2013-05-04 13:15:00,82.3,71.1,29.79,NW,313,5.0,11.0,69,0.00,,FEW,0.00,1014.00,VWS V14.01,2013-05-04 17:15:00,
2013-05-04 13:16:00,82.3,71.1,29.79,West,278,7.0,13.0,69,0.00,,FEW,0.00,1011.00,VWS V14.01,2013-05-04 17:16:00,
2013-05-04 13:17:00,82.3,70.7,29.79,WNW,296,5.0,13.0,68,0.00,,FEW,0.00,1011.00,VWS V14.01,2013-05-04 17:17:00,
2013-05-04 13:19:00,82.4,71.2,29.79,NNW,346,9.0,14.0,69,0.00,,FEW,0.00,1030.00,VWS V14.01,2013-05-04 17:19:00,
2013-05-04 13:20:00,82.4,70.8,29.79,NW,311,12.0,14.0,68,0.00,,FEW,0.00,1034.00,VWS V14.01,2013-05-04 17:20:00,
2013-05-04 13:21:00,82.3,70.7,29.79,NW,308,11.0,14.0,68,0.00,,FEW,0.00,1028.00,VWS V14.01,2013-05-04 17:21:00,
2013-05-04 13:22:00,82.3,70.7,29.79,WNW,298,10.0,14.0,68,0.00,,FEW,0.00,1028.00,VWS V14.01,2013-05-04 17:22:00,
2013-05-04 13:24:00,82.2,70.6,29.79,NW,325,9.0,14.0,68,0.00,,FEW,0.00,1085.00,VWS V14.01,2013-05-04 17:24:00,
2013-05-04 13:25:00,82.1,70.5,29.79,WNW,298,8.0,14.0,68,0.00,,FEW,0.00,1085.00,VWS V14.01,2013-05-04 17:25:00,
2013-05-04 13:27:00,82.1,70.5,29.79,WNW,300,10.0,14.0,68,0.00,,FEW,0.00,1028.00,VWS V14.01,2013-05-04 17:27:00,
2013-05-04 13:29:00,82.0,70.4,29.79,WSW,253,19.0,19.0,68,0.00,,FEW,0.00,1014.00,VWS V14.01,2013-05-04 17:29:00,
2013-05-04 13:30:00,82.0,70.4,29.79,WNW,290,5.0,19.0,68,0.00,,FEW,0.00,1005.00,VWS V14.01,2013-05-04 17:30:00,
2013-05-04 13:32:00,82.2,70.6,29.79,WNW,283,6.0,19.0,68,0.00,,FEW,0.00,1004.00,VWS V14.01,2013-05-04 17:32:00,
2013-05-04 13:34:00,82.3,70.7,29.79,NNE,30,7.0,10.0,68,0.00,,FEW,0.00,1069.00,VWS V14.01,2013-05-04 17:34:00,
2013-05-04 13:35:00,82.2,70.6,29.79,WNW,303,13.0,18.0,68,0.00,,FEW,0.00,1069.00,VWS V14.01,2013-05-04 17:35:00,
2013-05-04 13:37:00,82.0,70.4,29.79,NW,311,5.0,18.0,68,0.00,,FEW,0.00,1069.00,VWS V14.01,2013-05-04 17:37:00,
2013-05-04 13:39:00,81.9,71.2,29.79,WSW,255,3.0,18.0,70,0.00,,FEW,0.00,1085.00,VWS V14.01,2013-05-04 17:39:00,
2013-05-04 13:41:00,82.0,70.4,29.79,West,259,7.0,18.0,68,0.00,,FEW,0.00,1069.00,VWS V14.01,2013-05-04 17:41:00,
2013-05-04 13:42:00,82.0,70.4,29.79,NW,315,6.0,18.0,68,0.00,,FEW,0.00,1020.00,VWS V14.01,2013-05-04 17:42:00,
2013-05-04 13:44:00,82.0,70.0,29.79,NNW,329,7.0,15.0,67,0.00,,FEW,0.00,1018.00,VWS V14.01,2013-05-04 17:44:00,
2013-05-04 13:46:00,82.0,70.0,29.79,NW,304,10.0,15.0,67,0.00,,FEW,0.00,1037.00,VWS V14.01,2013-05-04 17:46:00,
2013-05-04 13:47:00,82.1,70.5,29.79,WNW,290,14.0,15.0,68,0.00,,FEW,0.00,1037.00,VWS V14.01,2013-05-04 17:47:00,
2013-05-04 13:49:00,82.1,70.1,29.79,WNW,302,14.0,15.0,67,0.00,,FEW,0.00,1025.00,VWS V14.01,2013-05-04 17:49:00,
2013-05-04 13:51:00,82.4,70.8,29.79,North,360,12.0,15.0,68,0.00,,FEW,0.00,1028.00,VWS V14.01,2013-05-04 17:51:00,
2013-05-04 13:52:00,82.5,70.9,29.79,NNW,327,5.0,17.0,68,0.00,,FEW,0.00,1028.00,VWS V14.01,2013-05-04 17:52:00,
2013-05-04 13:53:00,82.6,71.0,29.79,WNW,302,6.0,17.0,68,0.00,,FEW,0.00,1028.00,VWS V14.01,2013-05-04 17:53:00,
2013-05-04 13:54:00,82.7,70.6,29.79,NW,323,13.0,13.0,67,0.00,,FEW,0.00,1004.00,VWS V14.01,2013-05-04 17:54:00,
2013-05-04 13:56:00,82.6,70.5,29.79,WNW,292,8.0,13.0,67,0.00,,FEW,0.00,1018.00,VWS V14.01,2013-05-04 17:56:00,
2013-05-04 13:57:00,82.5,70.9,29.79,NW,305,10.0,13.0,68,0.00,,FEW,0.00,1028.00,VWS V14.01,2013-05-04 17:57:00,
2013-05-04 13:58:00,82.5,70.9,29.79,WNW,288,6.0,13.0,68,0.00,,FEW,0.00,1028.00,VWS V14.01,2013-05-04 17:58:00,
2013-05-04 13:59:00,82.4,70.8,29.79,West,272,4.0,13.0,68,0.00,,FEW,0.00,1028.00,VWS V14.01,2013-05-04 17:59:00,
2013-05-04 14:01:00,82.4,70.3,29.79,WNW,282,7.0,14.0,67,0.00,,FEW,0.00,970.00,VWS V14.01,2013-05-04 18:01:00,
2013-05-04 14:02:00,82.4,70.3,29.78,West,276,9.0,15.0,67,0.00,,FEW,0.00,965.00,VWS V14.01,2013-05-04 18:02:00,
2013-05-04 14:03:00,82.4,70.3,29.78,West,276,9.0,15.0,67,0.00,,FEW,0.00,965.00,VWS V14.01,2013-05-04 18:03:00,
2013-05-04 14:04:00,82.4,70.3,29.78,WNW,293,6.0,13.0,67,0.00,,FEW,0.00,962.00,VWS V14.01,2013-05-04 18:04:00,
2013-05-04 14:06:00,82.5,70.4,29.78,NNW,347,5.0,13.0,67,0.00,,FEW,0.00,963.00,VWS V14.01,2013-05-04 18:06:00,
2013-05-04 14:08:00,82.7,70.6,29.78,WNW,298,9.0,14.0,67,0.00,,FEW,0.00,962.00,VWS V14.01,2013-05-04 18:08:00,
2013-05-04 14:09:00,82.7,70.2,29.78,WNW,288,10.0,14.0,66,0.00,,FEW,0.00,960.00,VWS V14.01,2013-05-04 18:09:00,
2013-05-04 14:11:00,82.4,70.8,29.78,WNW,288,10.0,14.0,68,0.00,,FEW,0.00,979.00,VWS V14.01,2013-05-04 18:11:00,
2013-05-04 14:13:00,82.5,71.3,29.78,WNW,298,14.0,15.0,69,0.00,,FEW,0.00,976.00,VWS V14.01,2013-05-04 18:13:00,
2013-05-04 14:14:00,82.6,71.0,29.78,WNW,296,1.0,14.0,68,0.00,,FEW,0.00,990.00,VWS V14.01,2013-05-04 18:14:00,
2013-05-04 14:17:00,82.9,71.3,29.78,West,276,13.0,17.0,68,0.00,,FEW,0.00,972.00,VWS V14.01,2013-05-04 18:17:00,
2013-05-04 14:18:00,82.7,70.6,29.78,WSW,248,10.0,17.0,67,0.00,,FEW,0.00,972.00,VWS V14.01,2013-05-04 18:18:00,
2013-05-04 14:19:00,82.6,70.1,29.78,NNW,327,8.0,17.0,66,0.00,,FEW,0.00,993.00,VWS V14.01,2013-05-04 18:19:00,
2013-05-04 14:22:00,82.4,70.3,29.78,WNW,282,8.0,17.0,67,0.00,,FEW,0.00,970.00,VWS V14.01,2013-05-04 18:22:00,
2013-05-04 14:23:00,82.4,70.3,29.78,WNW,283,10.0,11.0,67,0.00,,FEW,0.00,970.00,VWS V14.01,2013-05-04 18:23:00,
2013-05-04 14:24:00,82.3,70.3,29.78,West,279,8.0,11.0,67,0.00,,FEW,0.00,960.00,VWS V14.01,2013-05-04 18:24:00,
2013-05-04 14:25:00,82.3,70.7,29.78,WNW,292,3.0,11.0,68,0.00,,FEW,0.00,960.00,VWS V14.01,2013-05-04 18:25:00,
2013-05-04 14:27:00,82.4,70.3,29.78,WNW,284,8.0,13.0,67,0.00,,FEW,0.00,1018.00,VWS V14.01,2013-05-04 18:27:00,
2013-05-04 14:28:00,82.4,70.3,29.78,NW,308,17.0,17.0,67,0.00,,FEW,0.00,1018.00,VWS V14.01,2013-05-04 18:28:00,
2013-05-04 14:29:00,82.5,70.9,29.78,NNE,26,4.0,17.0,68,0.00,,FEW,0.00,856.00,VWS V14.01,2013-05-04 18:29:00,
2013-05-04 14:30:00,82.5,70.9,29.78,West,280,8.0,17.0,68,0.00,,FEW,0.00,856.00,VWS V14.01,2013-05-04 18:30:00,
2013-05-04 14:32:00,82.3,70.7,29.77,WNW,293,12.0,17.0,68,0.00,,FEW,0.00,856.00,VWS V14.01,2013-05-04 18:32:00,
2013-05-04 14:33:00,82.3,70.7,29.77,WNW,302,12.0,12.0,68,0.00,,FEW,0.00,856.00,VWS V14.01,2013-05-04 18:33:00,
2013-05-04 14:35:00,82.1,70.9,29.77,WNW,303,9.0,13.0,69,0.00,,FEW,0.00,954.00,VWS V14.01,2013-05-04 18:35:00,
2013-05-04 14:37:00,82.3,70.7,29.77,NW,306,10.0,13.0,68,0.00,,FEW,0.00,983.00,VWS V14.01,2013-05-04 18:37:00,
2013-05-04 14:38:00,82.4,70.8,29.77,NNW,346,5.0,13.0,68,0.00,,FEW,0.00,983.00,VWS V14.01,2013-05-04 18:38:00,
2013-05-04 14:40:00,82.4,70.3,29.77,NW,317,4.0,13.0,67,0.00,,FEW,0.00,983.00,VWS V14.01,2013-05-04 18:40:00,
2013-05-04 14:42:00,82.5,70.9,29.77,WNW,301,12.0,13.0,68,0.00,,FEW,0.00,979.00,VWS V14.01,2013-05-04 18:42:00,
2013-05-04 14:43:00,82.5,70.9,29.77,NW,313,10.0,10.0,68,0.00,,FEW,0.00,979.00,VWS V14.01,2013-05-04 18:43:00,
2013-05-04 14:45:00,82.7,71.1,29.77,NW,323,6.0,13.0,68,0.00,,FEW,0.00,919.00,VWS V14.01,2013-05-04 18:45:00,
2013-05-04 14:48:00,82.8,71.2,29.77,WNW,286,7.0,14.0,68,0.00,,FEW,0.00,926.00,VWS V14.01,2013-05-04 18:48:00,
2013-05-04 14:49:00,82.8,70.7,29.77,NNW,332,4.0,14.0,67,0.00,,FEW,0.00,935.00,VWS V14.01,2013-05-04 18:49:00,
2013-05-04 14:50:00,82.9,71.3,29.77,NW,318,5.0,14.0,68,0.00,,FEW,0.00,1014.00,VWS V14.01,2013-05-04 18:50:00,
2013-05-04 14:53:00,82.7,70.6,29.77,WNW,296,11.0,15.0,67,0.00,,FEW,0.00,1014.00,VWS V14.01,2013-05-04 18:53:00,
2013-05-04 14:54:00,82.6,70.5,29.77,WNW,292,4.0,12.0,67,0.00,,FEW,0.00,995.00,VWS V14.01,2013-05-04 18:54:00,
2013-05-04 14:55:00,82.5,70.9,29.77,WNW,292,11.0,14.0,68,0.00,,FEW,0.00,969.00,VWS V14.01,2013-05-04 18:55:00,
2013-05-04 14:56:00,82.5,70.9,29.77,North,355,6.0,14.0,68,0.00,,FEW,0.00,962.00,VWS V14.01,2013-05-04 18:56:00,
2013-05-04 14:58:00,82.5,70.9,29.77,WNW,299,7.0,15.0,68,0.00,,FEW,0.00,983.00,VWS V14.01,2013-05-04 18:58:00,
2013-05-04 14:59:00,82.5,70.9,29.77,NW,304,9.0,15.0,68,0.00,,FEW,0.00,983.00,VWS V14.01,2013-05-04 18:59:00,
2013-05-04 15:00:00,82.3,70.7,29.77,West,281,8.0,15.0,68,0.00,,FEW,0.00,983.00,VWS V14.01,2013-05-04 19:00:00,
2013-05-04 15:01:00,82.2,70.6,29.77,NW,309,7.0,15.0,68,0.00,,FEW,0.00,983.00,VWS V14.01,2013-05-04 19:01:00,
2013-05-04 15:03:00,82.2,70.6,29.76,NNW,334,9.0,9.0,68,0.00,,FEW,0.00,940.00,VWS V14.01,2013-05-04 19:03:00,
2013-05-04 15:04:00,82.2,70.6,29.76,WNW,303,14.0,14.0,68,0.00,,FEW,0.00,940.00,VWS V14.01,2013-05-04 19:04:00,
2013-05-04 15:05:00,82.0,70.4,29.76,NW,325,7.0,15.0,68,0.00,,FEW,0.00,940.00,VWS V14.01,2013-05-04 19:05:00,
2013-05-04 15:06:00,81.9,70.3,29.76,NW,317,9.0,15.0,68,0.00,,FEW,0.00,963.00,VWS V14.01,2013-05-04 19:06:00,
2013-05-04 15:08:00,81.9,70.7,29.76,NW,306,14.0,16.0,69,0.00,,FEW,0.00,925.00,VWS V14.01,2013-05-04 19:08:00,
2013-05-04 15:09:00,81.9,70.3,29.76,NW,320,11.0,17.0,68,0.00,,FEW,0.00,884.00,VWS V14.01,2013-05-04 19:09:00,
2013-05-04 15:11:00,81.8,70.6,29.76,WNW,300,9.0,17.0,69,0.00,,FEW,0.00,893.00,VWS V14.01,2013-05-04 19:11:00,
2013-05-04 15:13:00,81.9,71.2,29.76,WNW,295,8.0,11.0,70,0.00,,FEW,0.00,875.00,VWS V14.01,2013-05-04 19:13:00,
2013-05-04 15:14:00,82.0,71.3,29.76,NNW,337,6.0,11.0,70,0.00,,FEW,0.00,872.00,VWS V14.01,2013-05-04 19:14:00,
2013-05-04 15:16:00,82.5,71.3,29.76,West,275,5.0,14.0,69,0.00,,FEW,0.00,868.00,VWS V14.01,2013-05-04 19:16:00,
2013-05-04 15:18:00,82.5,70.9,29.76,WNW,295,14.0,17.0,68,0.00,,FEW,0.00,875.00,VWS V14.01,2013-05-04 19:18:00,
2013-05-04 15:19:00,82.5,70.9,29.76,WNW,294,11.0,17.0,68,0.00,,FEW,0.00,875.00,VWS V14.01,2013-05-04 19:19:00,
2013-05-04 15:21:00,82.3,70.3,29.76,NNW,348,7.0,17.0,67,0.00,,FEW,0.00,865.00,VWS V14.01,2013-05-04 19:21:00,
2013-05-04 15:23:00,82.6,71.4,29.76,NW,307,6.0,10.0,69,0.00,,FEW,0.00,888.00,VWS V14.01,2013-05-04 19:23:00,
2013-05-04 15:24:00,82.6,71.4,29.76,North,355,10.0,10.0,69,0.00,,FEW,0.00,888.00,VWS V14.01,2013-05-04 19:24:00,
2013-05-04 15:25:00,82.6,71.4,29.76,NW,309,8.0,10.0,69,0.00,,FEW,0.00,942.00,VWS V14.01,2013-05-04 19:25:00,
2013-05-04 15:26:00,82.5,71.3,29.76,WNW,295,7.0,12.0,69,0.00,,FEW,0.00,942.00,VWS V14.01,2013-05-04 19:26:00,
2013-05-04 15:29:00,82.2,71.0,29.76,NNW,346,6.0,16.0,69,0.00,,FEW,0.00,332.00,VWS V14.01,2013-05-04 19:29:00,
2013-05-04 15:30:00,82.1,70.9,29.76,NW,309,6.0,16.0,69,0.00,,FEW,0.00,895.00,VWS V14.01,2013-05-04 19:30:00,
2013-05-04 15:31:00,82.1,71.3,29.76,NW,317,11.0,16.0,70,0.00,,FEW,0.00,872.00,VWS V14.01,2013-05-04 19:31:00,
2013-05-04 15:34:00,82.1,70.9,29.76,NW,309,7.0,11.0,69,0.00,,FEW,0.00,207.00,VWS V14.01,2013-05-04 19:34:00,
2013-05-04 15:35:00,82.0,71.3,29.76,WNW,296,5.0,11.0,70,0.00,,FEW,0.00,207.00,VWS V14.01,2013-05-04 19:35:00,
2013-05-04 15:36:00,82.1,71.8,29.76,NW,306,10.0,14.0,71,0.00,,FEW,0.00,835.00,VWS V14.01,2013-05-04 19:36:00,
2013-05-04 15:37:00,82.1,71.3,29.76,West,263,5.0,14.0,70,0.00,,FEW,0.00,835.00,VWS V14.01,2013-05-04 19:37:00,
2013-05-04 15:39:00,82.4,71.6,29.76,WNW,288,6.0,14.0,70,0.00,,FEW,0.00,830.00,VWS V14.01,2013-05-04 19:39:00,
2013-05-04 15:40:00,82.5,71.7,29.76,NNW,328,5.0,14.0,70,0.00,,FEW,0.00,844.00,VWS V14.01,2013-05-04 19:40:00,
2013-05-04 15:41:00,82.6,71.8,29.76,WNW,290,5.0,15.0,70,0.00,,FEW,0.00,861.00,VWS V14.01,2013-05-04 19:41:00,
2013-05-04 15:42:00,82.7,71.9,29.76,NW,308,8.0,15.0,70,0.00,,FEW,0.00,844.00,VWS V14.01,2013-05-04 19:42:00,
2013-05-04 15:44:00,82.7,71.5,29.76,NW,323,8.0,14.0,69,0.00,,FEW,0.00,835.00,VWS V14.01,2013-05-04 19:44:00,
2013-05-04 15:45:00,82.6,71.4,29.76,West,273,11.0,14.0,69,0.00,,FEW,0.00,849.00,VWS V14.01,2013-05-04 19:45:00,
2013-05-04 15:46:00,82.5,71.3,29.76,WNW,295,10.0,14.0,69,0.00,,FEW,0.00,838.00,VWS V14.01,2013-05-04 19:46:00,
2013-05-04 15:47:00,82.4,71.2,29.76,WNW,296,6.0,14.0,69,0.00,,FEW,0.00,826.00,VWS V14.01,2013-05-04 19:47:00,
2013-05-04 15:49:00,82.2,71.0,29.76,WNW,300,11.0,15.0,69,0.00,,FEW,0.00,826.00,VWS V14.01,2013-05-04 19:49:00,
2013-05-04 15:50:00,82.0,70.4,29.76,NW,312,7.0,18.0,68,0.00,,FEW,0.00,826.00,VWS V14.01,2013-05-04 19:50:00,
2013-05-04 15:51:00,81.8,70.2,29.76,NW,317,5.0,18.0,68,0.00,,FEW,0.00,849.00,VWS V14.01,2013-05-04 19:51:00,
2013-05-04 15:52:00,81.8,71.1,29.76,NW,304,8.0,18.0,70,0.00,,FEW,0.00,846.00,VWS V14.01,2013-05-04 19:52:00,
2013-05-04 15:54:00,82.1,71.3,29.76,NW,320,8.0,12.0,70,0.00,,FEW,0.00,865.00,VWS V14.01,2013-05-04 19:54:00,
2013-05-04 15:55:00,82.3,71.5,29.76,WNW,293,7.0,12.0,70,0.00,,FEW,0.00,865.00,VWS V14.01,2013-05-04 19:55:00,
2013-05-04 15:56:00,82.4,71.2,29.76,NNW,327,3.0,12.0,69,0.00,,FEW,0.00,830.00,VWS V14.01,2013-05-04 19:56:00,
2013-05-04 15:58:00,82.4,71.2,29.76,North,355,8.0,15.0,69,0.00,,FEW,0.00,777.00,VWS V14.01,2013-05-04 19:58:00,
2013-05-04 15:59:00,82.3,70.7,29.76,WNW,292,4.0,15.0,68,0.00,,FEW,0.00,777.00,VWS V14.01,2013-05-04 19:59:00,
2013-05-04 16:00:00,82.2,71.0,29.76,WNW,303,16.0,16.0,69,0.00,,FEW,0.00,589.00,VWS V14.01,2013-05-04 20:00:00,
2013-05-04 16:01:00,82.1,70.9,29.76,WNW,289,8.0,16.0,69,0.00,,FEW,0.00,589.00,VWS V14.01,2013-05-04 20:01:00,
2013-05-04 16:03:00,82.0,71.7,29.75,NW,325,4.0,9.0,71,0.00,,FEW,0.00,884.00,VWS V14.01,2013-05-04 20:03:00,
2013-05-04 16:04:00,82.2,71.4,29.75,West,281,3.0,11.0,70,0.00,,FEW,0.00,844.00,VWS V14.01,2013-05-04 20:04:00,
2013-05-04 16:05:00,82.4,71.6,29.75,NNW,343,3.0,11.0,70,0.00,,FEW,0.00,831.00,VWS V14.01,2013-05-04 20:05:00,
2013-05-04 16:06:00,82.5,71.7,29.75,West,272,3.0,11.0,70,0.00,,FEW,0.00,831.00,VWS V14.01,2013-05-04 20:06:00,
2013-05-04 16:07:00,82.5,71.3,29.75,NW,309,10.0,11.0,69,0.00,,FEW,0.00,831.00,VWS V14.01,2013-05-04 20:07:00,
2013-05-04 16:08:00,82.5,71.3,29.75,NNW,347,6.0,11.0,69,0.00,,FEW,0.00,875.00,VWS V14.01,2013-05-04 20:08:00,
2013-05-04 16:10:00,82.6,71.4,29.75,NW,315,14.0,14.0,69,0.00,,FEW,0.00,875.00,VWS V14.01,2013-05-04 20:10:00,
2013-05-04 16:11:00,82.6,71.0,29.75,West,281,4.0,14.0,68,0.00,,FEW,0.00,875.00,VWS V14.01,2013-05-04 20:11:00,
2013-05-04 16:13:00,82.3,70.7,29.75,North,5,8.0,8.0,68,0.00,,FEW,0.00,758.00,VWS V14.01,2013-05-04 20:13:00,
2013-05-04 16:14:00,82.2,71.0,29.75,WNW,288,4.0,9.0,69,0.00,,FEW,0.00,758.00,VWS V14.01,2013-05-04 20:14:00,
2013-05-04 16:15:00,82.2,71.0,29.75,WNW,297,16.0,16.0,69,0.00,,FEW,0.00,758.00,VWS V14.01,2013-05-04 20:15:00,
2013-05-04 16:16:00,82.0,70.8,29.75,WNW,288,7.0,16.0,69,0.00,,FEW,0.00,158.00,VWS V14.01,2013-05-04 20:16:00,
2013-05-04 16:18:00,81.7,70.6,29.75,WNW,285,11.0,16.0,69,0.00,,FEW,0.00,209.00,VWS V14.01,2013-05-04 20:18:00,
2013-05-04 16:19:00,81.5,70.4,29.75,NNW,331,7.0,16.0,69,0.00,,FEW,0.00,250.00,VWS V14.01,2013-05-04 20:19:00,
2013-05-04 16:20:00,81.2,70.5,29.75,NW,323,7.0,19.0,70,0.00,,FEW,0.00,244.00,VWS V14.01,2013-05-04 20:20:00,
2013-05-04 16:21:00,80.9,70.2,29.75,WNW,288,6.0,19.0,70,0.00,,FEW,0.00,267.00,VWS V14.01,2013-05-04 20:21:00,
2013-05-04 16:23:00,80.8,70.5,29.75,North,350,3.0,9.0,71,0.00,,FEW,0.00,339.00,VWS V14.01,2013-05-04 20:23:00,
2013-05-04 16:24:00,81.0,71.1,29.75,SW,223,3.0,10.0,72,0.00,,FEW,0.00,842.00,VWS V14.01,2013-05-04 20:24:00,
2013-05-04 16:25:00,81.3,71.4,29.75,West,281,4.0,10.0,72,0.00,,FEW,0.00,796.00,VWS V14.01,2013-05-04 20:25:00,
2013-05-04 16:26:00,81.5,71.6,29.75,NW,308,3.0,10.0,72,0.00,,FEW,0.00,759.00,VWS V14.01,2013-05-04 20:26:00,
2013-05-04 16:28:00,82.0,71.7,29.75,NW,319,11.0,13.0,71,0.00,,FEW,0.00,773.00,VWS V14.01,2013-05-04 20:28:00,
2013-05-04 16:29:00,81.9,71.2,29.75,WNW,294,12.0,14.0,70,0.00,,FEW,0.00,773.00,VWS V14.01,2013-05-04 20:29:00,
2013-05-04 16:30:00,81.9,71.6,29.75,NW,309,10.0,14.0,71,0.00,,FEW,0.00,773.00,VWS V14.01,2013-05-04 20:30:00,
2013-05-04 16:31:00,81.8,71.5,29.75,WNW,290,15.0,15.0,71,0.00,,FEW,0.00,724.00,VWS V14.01,2013-05-04 20:31:00,
2013-05-04 16:32:00,81.8,71.1,29.75,WNW,292,5.0,15.0,70,0.00,,FEW,0.00,724.00,VWS V14.01,2013-05-04 20:32:00,
2013-05-04 16:33:00,81.8,71.1,29.75,WNW,297,8.0,12.0,70,0.00,,FEW,0.00,724.00,VWS V14.01,2013-05-04 20:33:00,
2013-05-04 16:34:00,81.7,71.0,29.75,NW,309,7.0,15.0,70,0.00,,FEW,0.00,759.00,VWS V14.01,2013-05-04 20:34:00,
2013-05-04 16:35:00,81.7,71.0,29.75,NW,318,13.0,15.0,70,0.00,,FEW,0.00,759.00,VWS V14.01,2013-05-04 20:35:00,
2013-05-04 16:36:00,81.8,71.1,29.75,NNW,343,9.0,15.0,70,0.00,,FEW,0.00,782.00,VWS V14.01,2013-05-04 20:36:00,
2013-05-04 16:37:00,81.7,71.0,29.75,WNW,283,8.0,15.0,70,0.00,,FEW,0.00,782.00,VWS V14.01,2013-05-04 20:37:00,
2013-05-04 16:38:00,81.7,70.6,29.75,NNW,329,4.0,15.0,69,0.00,,FEW,0.00,726.00,VWS V14.01,2013-05-04 20:38:00,
2013-05-04 16:40:00,81.7,71.0,29.75,NNW,340,7.0,15.0,70,0.00,,FEW,0.00,629.00,VWS V14.01,2013-05-04 20:40:00,
2013-05-04 16:41:00,81.7,71.0,29.75,WNW,284,11.0,15.0,70,0.00,,FEW,0.00,629.00,VWS V14.01,2013-05-04 20:41:00,
2013-05-04 16:42:00,81.6,70.4,29.75,NW,305,6.0,17.0,69,0.00,,FEW,0.00,139.00,VWS V14.01,2013-05-04 20:42:00,
2013-05-04 16:43:00,81.3,70.2,29.75,NW,304,8.0,14.0,69,0.00,,FEW,0.00,142.00,VWS V14.01,2013-05-04 20:43:00,
2013-05-04 16:45:00,81.1,70.0,29.75,NW,311,8.0,14.0,69,0.00,,FEW,0.00,714.00,VWS V14.01,2013-05-04 20:45:00,
2013-05-04 16:46:00,81.1,70.4,29.75,WNW,297,10.0,14.0,70,0.00,,FEW,0.00,682.00,VWS V14.01,2013-05-04 20:46:00,
2013-05-04 16:47:00,81.1,70.8,29.75,NNW,342,10.0,14.0,71,0.00,,FEW,0.00,650.00,VWS V14.01,2013-05-04 20:47:00,
2013-05-04 16:49:00,81.0,70.3,29.75,WNW,301,3.0,14.0,70,0.00,,FEW,0.00,642.00,VWS V14.01,2013-05-04 20:49:00,
2013-05-04 16:50:00,81.3,71.0,29.75,NW,310,5.0,14.0,71,0.00,,FEW,0.00,654.00,VWS V14.01,2013-05-04 20:50:00,
2013-05-04 16:51:00,81.5,71.2,29.75,NW,310,9.0,18.0,71,0.00,,FEW,0.00,624.00,VWS V14.01,2013-05-04 20:51:00,
2013-05-04 16:52:00,81.6,70.9,29.75,NW,317,9.0,18.0,70,0.00,,FEW,0.00,633.00,VWS V14.01,2013-05-04 20:52:00,
2013-05-04 16:54:00,81.6,71.3,29.75,WNW,303,13.0,13.0,71,0.00,,FEW,0.00,633.00,VWS V14.01,2013-05-04 20:54:00,
2013-05-04 16:55:00,81.4,71.1,29.75,WNW,302,10.0,13.0,71,0.00,,FEW,0.00,633.00,VWS V14.01,2013-05-04 20:55:00,
2013-05-04 16:56:00,81.4,71.1,29.75,NW,316,12.0,13.0,71,0.00,,FEW,0.00,633.00,VWS V14.01,2013-05-04 20:56:00,
2013-05-04 16:57:00,81.3,71.0,29.75,NNW,327,10.0,13.0,71,0.00,,FEW,0.00,599.00,VWS V14.01,2013-05-04 20:57:00,
2013-05-04 16:59:00,81.2,70.9,29.75,NW,305,6.0,13.0,71,0.00,,FEW,0.00,232.00,VWS V14.01,2013-05-04 20:59:00,
2013-05-04 17:00:00,81.3,71.4,29.75,NW,309,12.0,13.0,72,0.00,,FEW,0.00,619.00,VWS V14.01,2013-05-04 21:00:00,
2013-05-04 17:01:00,81.4,71.1,29.75,West,278,9.0,13.0,71,0.00,,FEW,0.00,619.00,VWS V14.01,2013-05-04 21:01:00,
2013-05-04 17:02:00,81.3,71.0,29.75,NNW,331,5.0,13.0,71,0.00,,FEW,0.00,619.00,VWS V14.01,2013-05-04 21:02:00,
2013-05-04 17:04:00,81.3,71.0,29.75,NW,314,7.0,12.0,71,0.00,,FEW,0.00,603.00,VWS V14.01,2013-05-04 21:04:00,
2013-05-04 17:06:00,81.2,70.9,29.75,WNW,294,13.0,17.0,71,0.00,,FEW,0.00,610.00,VWS V14.01,2013-05-04 21:06:00,
2013-05-04 17:07:00,81.1,70.4,29.75,NW,323,12.0,17.0,70,0.00,,FEW,0.00,610.00,VWS V14.01,2013-05-04 21:07:00,
2013-05-04 17:09:00,80.9,70.2,29.75,West,261,9.0,18.0,70,0.00,,FEW,0.00,605.00,VWS V14.01,2013-05-04 21:09:00,
2013-05-04 17:11:00,80.8,70.5,29.75,NW,311,3.0,18.0,71,0.00,,FEW,0.00,536.00,VWS V14.01,2013-05-04 21:11:00,
2013-05-04 17:12:00,81.0,71.1,29.75,West,275,10.0,18.0,72,0.00,,FEW,0.00,462.00,VWS V14.01,2013-05-04 21:12:00,
2013-05-04 17:14:00,81.0,70.7,29.75,NW,306,6.0,13.0,71,0.00,,FEW,0.00,570.00,VWS V14.01,2013-05-04 21:14:00,
2013-05-04 17:16:00,81.0,70.7,29.75,WNW,298,14.0,14.0,71,0.00,,FEW,0.00,570.00,VWS V14.01,2013-05-04 21:16:00,
2013-05-04 17:17:00,81.0,70.7,29.75,NW,315,8.0,14.0,71,0.00,,FEW,0.00,570.00,VWS V14.01,2013-05-04 21:17:00,
2013-05-04 17:20:00,80.9,71.0,29.75,West,276,9.0,14.0,72,0.00,,FEW,0.00,570.00,VWS V14.01,2013-05-04 21:20:00,
2013-05-04 17:21:00,80.9,71.0,29.75,WNW,290,7.0,14.0,72,0.00,,FEW,0.00,570.00,VWS V14.01,2013-05-04 21:21:00,
2013-05-04 17:23:00,80.8,70.5,29.75,NW,309,10.0,17.0,71,0.00,,FEW,0.00,570.00,VWS V14.01,2013-05-04 21:23:00,
2013-05-04 17:25:00,80.7,70.8,29.75,WNW,284,9.0,13.0,72,0.00,,FEW,0.00,244.00,VWS V14.01,2013-05-04 21:25:00,
2013-05-04 17:26:00,80.8,70.9,29.75,WNW,299,6.0,13.0,72,0.00,,FEW,0.00,501.00,VWS V14.01,2013-05-04 21:26:00,
2013-05-04 17:28:00,81.0,71.1,29.75,WNW,294,7.0,13.0,72,0.00,,FEW,0.00,499.00,VWS V14.01,2013-05-04 21:28:00,
2013-05-04 17:30:00,81.1,70.8,29.75,NW,307,8.0,13.0,71,0.00,,FEW,0.00,487.00,VWS V14.01,2013-05-04 21:30:00,
2013-05-04 17:31:00,81.1,70.8,29.75,WNW,286,6.0,19.0,71,0.00,,FEW,0.00,503.00,VWS V14.01,2013-05-04 21:31:00,
2013-05-04 17:33:00,81.1,70.8,29.75,WNW,291,10.0,13.0,71,0.00,,FEW,0.00,501.00,VWS V14.01,2013-05-04 21:33:00,
2013-05-04 17:35:00,80.9,71.0,29.75,West,269,8.0,15.0,72,0.00,,FEW,0.00,475.00,VWS V14.01,2013-05-04 21:35:00,
2013-05-04 17:36:00,80.9,70.6,29.75,WNW,296,7.0,15.0,71,0.00,,FEW,0.00,469.00,VWS V14.01,2013-05-04 21:36:00,
2013-05-04 17:37:00,80.9,70.6,29.75,WNW,299,10.0,15.0,71,0.00,,FEW,0.00,478.00,VWS V14.01,2013-05-04 21:37:00,
2013-05-04 17:38:00,80.8,70.5,29.75,NNW,337,8.0,15.0,71,0.00,,FEW,0.00,464.00,VWS V14.01,2013-05-04 21:38:00,
2013-05-04 17:40:00,80.7,70.4,29.75,NNE,24,9.0,16.0,71,0.00,,FEW,0.00,464.00,VWS V14.01,2013-05-04 21:40:00,
2013-05-04 17:41:00,80.7,70.8,29.75,WNW,284,8.0,16.0,72,0.00,,FEW,0.00,329.00,VWS V14.01,2013-05-04 21:41:00,
2013-05-04 17:42:00,80.7,70.8,29.75,NW,311,10.0,16.0,72,0.00,,FEW,0.00,329.00,VWS V14.01,2013-05-04 21:42:00,
2013-05-04 17:43:00,80.6,70.8,29.75,NW,313,5.0,6.0,72,0.00,,FEW,0.00,329.00,VWS V14.01,2013-05-04 21:43:00,
2013-05-04 17:46:00,80.4,70.6,29.75,WNW,284,9.0,14.0,72,0.00,,FEW,0.00,113.00,VWS V14.01,2013-05-04 21:46:00,
2013-05-04 17:47:00,80.3,70.5,29.75,NW,326,13.0,14.0,72,0.00,,FEW,0.00,84.00,VWS V14.01,2013-05-04 21:47:00,
2013-05-04 17:48:00,80.1,70.3,29.75,NW,323,8.0,15.0,72,0.00,,FEW,0.00,88.00,VWS V14.01,2013-05-04 21:48:00,
2013-05-04 17:51:00,79.7,70.3,29.75,NNW,342,9.0,15.0,73,0.00,,FEW,0.00,183.00,VWS V14.01,2013-05-04 21:51:00,
2013-05-04 17:52:00,79.6,70.2,29.75,WNW,284,6.0,15.0,73,0.00,,FEW,0.00,169.00,VWS V14.01,2013-05-04 21:52:00,
2013-05-04 17:53:00,79.5,70.1,29.75,NW,311,15.0,15.0,73,0.00,,FEW,0.00,227.00,VWS V14.01,2013-05-04 21:53:00,
2013-05-04 17:56:00,79.8,70.8,29.75,NW,317,8.0,15.0,74,0.00,,FEW,0.00,408.00,VWS V14.01,2013-05-04 21:56:00,
2013-05-04 17:57:00,79.9,70.5,29.75,WNW,296,7.0,15.0,73,0.00,,FEW,0.00,387.00,VWS V14.01,2013-05-04 21:57:00,
2013-05-04 17:58:00,80.1,70.7,29.75,NW,309,13.0,15.0,73,0.00,,FEW,0.00,371.00,VWS V14.01,2013-05-04 21:58:00,
2013-05-04 18:01:00,80.3,71.3,29.75,NW,319,10.0,15.0,74,0.00,,FEW,0.00,125.00,VWS V14.01,2013-05-04 22:01:00,
2013-05-04 18:02:00,80.3,71.3,29.76,NW,316,8.0,15.0,74,0.00,,FEW,0.00,125.00,VWS V14.01,2013-05-04 22:02:00,
2013-05-04 18:03:00,80.3,70.9,29.76,WNW,286,6.0,9.0,73,0.00,,FEW,0.00,125.00,VWS V14.01,2013-05-04 22:03:00,
2013-05-04 18:04:00,80.3,70.9,29.76,WNW,298,7.0,9.0,73,0.00,,FEW,0.00,193.00,VWS V14.01,2013-05-04 22:04:00,
2013-05-04 18:07:00,80.2,71.2,29.76,NW,326,11.0,14.0,74,0.00,,FEW,0.00,97.00,VWS V14.01,2013-05-04 22:07:00,
2013-05-04 18:08:00,80.0,71.0,29.76,NW,315,14.0,14.0,74,0.00,,FEW,0.00,72.00,VWS V14.01,2013-05-04 22:08:00,
2013-05-04 18:09:00,79.9,70.9,29.76,North,355,7.0,14.0,74,0.00,,FEW,0.00,72.00,VWS V14.01,2013-05-04 22:09:00,
2013-05-04 18:12:00,79.4,70.8,29.76,NNW,333,10.0,14.0,75,0.00,,FEW,0.00,158.00,VWS V14.01,2013-05-04 22:12:00,
2013-05-04 18:13:00,79.3,70.7,29.76,WNW,298,6.0,13.0,75,0.00,,FEW,0.00,195.00,VWS V14.01,2013-05-04 22:13:00,
2013-05-04 18:14:00,79.3,70.7,29.76,NW,315,9.0,14.0,75,0.00,,FEW,0.00,388.00,VWS V14.01,2013-05-04 22:14:00,
2013-05-04 18:17:00,79.2,70.2,29.76,NNW,336,10.0,18.0,74,0.00,,FEW,0.00,202.00,VWS V14.01,2013-05-04 22:17:00,
2013-05-04 18:18:00,79.1,70.1,29.76,NNW,329,5.0,18.0,74,0.00,,FEW,0.00,135.00,VWS V14.01,2013-05-04 22:18:00,
2013-05-04 18:19:00,79.1,70.5,29.76,NW,315,9.0,18.0,75,0.00,,FEW,0.00,132.00,VWS V14.01,2013-05-04 22:19:00,
2013-05-04 18:22:00,79.0,70.4,29.76,NW,316,8.0,18.0,75,0.00,,FEW,0.00,334.00,VWS V14.01,2013-05-04 22:22:00,
2013-05-04 18:23:00,79.0,70.0,29.76,NNW,340,7.0,18.0,74,0.00,,FEW,0.00,334.00,VWS V14.01,2013-05-04 22:23:00,
2013-05-04 18:24:00,79.0,70.0,29.76,NNW,338,8.0,15.0,74,0.00,,FEW,0.00,192.00,VWS V14.01,2013-05-04 22:24:00,
2013-05-04 18:27:00,79.0,69.6,29.76,NW,322,7.0,17.0,73,0.00,,FEW,0.00,274.00,VWS V14.01,2013-05-04 22:27:00,
2013-05-04 18:28:00,79.0,69.6,29.76,WNW,298,8.0,17.0,73,0.00,,FEW,0.00,107.00,VWS V14.01,2013-05-04 22:28:00,
2013-05-04 18:29:00,79.0,70.0,29.76,WNW,296,9.0,17.0,74,0.00,,FEW,0.00,109.00,VWS V14.01,2013-05-04 22:29:00,
2013-05-04 18:32:00,79.1,70.1,29.76,NW,304,14.0,17.0,74,0.00,,FEW,0.00,276.00,VWS V14.01,2013-05-04 22:32:00,
2013-05-04 18:33:00,79.1,69.7,29.76,NNW,331,7.0,13.0,73,0.00,,FEW,0.00,276.00,VWS V14.01,2013-05-04 22:33:00,
2013-05-04 18:34:00,79.1,69.7,29.76,West,259,8.0,13.0,73,0.00,,FEW,0.00,174.00,VWS V14.01,2013-05-04 22:34:00,
2013-05-04 18:37:00,79.1,70.1,29.76,NW,311,17.0,17.0,74,0.00,,FEW,0.00,241.00,VWS V14.01,2013-05-04 22:37:00,
2013-05-04 18:38:00,79.1,69.7,29.76,WNW,296,10.0,18.0,73,0.00,,FEW,0.00,241.00,VWS V14.01,2013-05-04 22:38:00,
2013-05-04 18:39:00,79.0,70.0,29.76,NW,326,7.0,18.0,74,0.00,,FEW,0.00,74.00,VWS V14.01,2013-05-04 22:39:00,
2013-05-04 18:40:00,79.0,70.0,29.76,West,279,13.0,18.0,74,0.00,,FEW,0.00,74.00,VWS V14.01,2013-05-04 22:40:00,
2013-05-04 18:42:00,78.7,69.7,29.76,WNW,302,4.0,18.0,74,0.00,,FEW,0.00,74.00,VWS V14.01,2013-05-04 22:42:00,
2013-05-04 18:43:00,78.7,69.7,29.76,NW,304,7.0,18.0,74,0.00,,FEW,0.00,74.00,VWS V14.01,2013-05-04 22:43:00,
2013-05-04 18:45:00,78.5,69.9,29.76,WNW,289,12.0,13.0,75,0.00,,FEW,0.00,77.00,VWS V14.01,2013-05-04 22:45:00,
2013-05-04 18:48:00,78.3,69.7,29.76,WNW,293,16.0,16.0,75,0.00,,FEW,0.00,84.00,VWS V14.01,2013-05-04 22:48:00,
2013-05-04 18:50:00,78.2,70.0,29.76,NNW,330,11.0,16.0,76,0.00,,FEW,0.00,74.00,VWS V14.01,2013-05-04 22:50:00,
2013-05-04 18:53:00,78.0,69.4,29.76,NW,313,8.0,11.0,75,0.00,,FEW,0.00,76.00,VWS V14.01,2013-05-04 22:53:00,
2013-05-04 18:55:00,77.9,69.3,29.76,WNW,303,8.0,11.0,75,0.00,,FEW,0.00,60.00,VWS V14.01,2013-05-04 22:55:00,
2013-05-04 18:58:00,77.9,69.7,29.76,North,355,7.0,13.0,76,0.00,,FEW,0.00,60.00,VWS V14.01,2013-05-04 22:58:00,
2013-05-04 19:00:00,77.8,69.6,29.76,NNW,327,12.0,13.0,76,0.00,,FEW,0.00,65.00,VWS V14.01,2013-05-04 23:00:00,
2013-05-04 19:03:00,77.8,70.0,29.76,WNW,291,7.0,17.0,77,0.00,,FEW,0.00,65.00,VWS V14.01,2013-05-04 23:03:00,
2013-05-04 19:05:00,77.7,69.9,29.76,NNW,338,12.0,17.0,77,0.00,,FEW,0.00,91.00,VWS V14.01,2013-05-04 23:05:00,
2013-05-04 19:08:00,77.6,69.8,29.76,NW,318,7.0,17.0,77,0.00,,FEW,0.00,139.00,VWS V14.01,2013-05-04 23:08:00,
2013-05-04 19:09:00,77.6,69.8,29.76,WNW,292,16.0,17.0,77,0.00,,FEW,0.00,130.00,VWS V14.01,2013-05-04 23:09:00,
2013-05-04 19:10:00,77.6,69.4,29.76,West,277,4.0,17.0,76,0.00,,FEW,0.00,123.00,VWS V14.01,2013-05-04 23:10:00,
2013-05-04 19:13:00,77.5,69.0,29.76,WNW,302,10.0,11.0,75,0.00,,FEW,0.00,97.00,VWS V14.01,2013-05-04 23:13:00,
2013-05-04 19:14:00,77.5,69.0,29.76,WNW,299,5.0,11.0,75,0.00,,FEW,0.00,90.00,VWS V14.01,2013-05-04 23:14:00,
2013-05-04 19:15:00,77.5,69.0,29.76,NW,319,5.0,15.0,75,0.00,,FEW,0.00,83.00,VWS V14.01,2013-05-04 23:15:00,
2013-05-04 19:18:00,77.6,69.4,29.77,WNW,301,5.0,17.0,76,0.00,,FEW,0.00,74.00,VWS V14.01,2013-05-04 23:18:00,
2013-05-04 19:19:00,77.6,69.4,29.77,WNW,292,11.0,17.0,76,0.00,,FEW,0.00,74.00,VWS V14.01,2013-05-04 23:19:00,
2013-05-04 19:20:00,77.6,69.4,29.77,WNW,296,9.0,17.0,76,0.00,,FEW,0.00,65.00,VWS V14.01,2013-05-04 23:20:00,
2013-05-04 19:23:00,77.5,69.0,29.77,NW,325,9.0,12.0,75,0.00,,FEW,0.00,54.00,VWS V14.01,2013-05-04 23:23:00,
2013-05-04 19:24:00,77.5,69.0,29.77,NW,309,8.0,12.0,75,0.00,,FEW,0.00,54.00,VWS V14.01,2013-05-04 23:24:00,
2013-05-04 19:25:00,77.5,69.0,29.77,WNW,302,5.0,12.0,75,0.00,,FEW,0.00,49.00,VWS V14.01,2013-05-04 23:25:00,
2013-05-04 19:26:00,77.5,69.0,29.77,WNW,299,6.0,12.0,75,0.00,,FEW,0.00,40.00,VWS V14.01,2013-05-04 23:26:00,
2013-05-04 19:28:00,77.5,69.0,29.77,WNW,292,16.0,16.0,75,0.00,,FEW,0.00,26.00,VWS V14.01,2013-05-04 23:28:00,
2013-05-04 19:29:00,77.5,69.0,29.77,WNW,292,8.0,16.0,75,0.00,,FEW,0.00,25.00,VWS V14.01,2013-05-04 23:29:00,
2013-05-04 19:30:00,77.4,68.5,29.77,WNW,292,7.0,16.0,74,0.00,,FEW,0.00,23.00,VWS V14.01,2013-05-04 23:30:00,
2013-05-04 19:31:00,77.3,68.4,29.77,NW,315,5.0,16.0,74,0.00,,FEW,0.00,23.00,VWS V14.01,2013-05-04 23:31:00,
2013-05-04 19:34:00,77.1,68.2,29.77,NNW,335,6.0,12.0,74,0.00,,FEW,0.00,19.00,VWS V14.01,2013-05-04 23:34:00,
2013-05-04 19:36:00,77.1,68.6,29.77,SW,220,4.0,16.0,75,0.00,,FEW,0.00,18.00,VWS V14.01,2013-05-04 23:36:00,
2013-05-04 19:39:00,77.0,68.5,29.77,WNW,297,11.0,18.0,75,0.00,,FEW,0.00,16.00,VWS V14.01,2013-05-04 23:39:00,
2013-05-04 19:40:00,77.0,68.5,29.77,NNW,348,7.0,18.0,75,0.00,,FEW,0.00,14.00,VWS V14.01,2013-05-04 23:40:00,
2013-05-04 19:41:00,76.9,68.4,29.77,West,271,4.0,18.0,75,0.00,,FEW,0.00,14.00,VWS V14.01,2013-05-04 23:41:00,
2013-05-04 19:42:00,76.9,68.4,29.77,North,349,4.0,18.0,75,0.00,,FEW,0.00,14.00,VWS V14.01,2013-05-04 23:42:00,
2013-05-04 19:44:00,76.8,68.7,29.77,WNW,302,8.0,10.0,76,0.00,,FEW,0.00,11.00,VWS V14.01,2013-05-04 23:44:00,
2013-05-04 19:45:00,76.8,68.3,29.77,NW,316,8.0,13.0,75,0.00,,FEW,0.00,11.00,VWS V14.01,2013-05-04 23:45:00,
2013-05-04 19:46:00,76.8,68.7,29.77,NW,309,8.0,13.0,76,0.00,,FEW,0.00,11.00,VWS V14.01,2013-05-04 23:46:00,
2013-05-04 19:47:00,76.8,68.7,29.77,NNW,345,6.0,13.0,76,0.00,,FEW,0.00,11.00,VWS V14.01,2013-05-04 23:47:00,
2013-05-04 19:49:00,76.7,68.6,29.77,NW,324,5.0,15.0,76,0.00,,FEW,0.00,7.00,VWS V14.01,2013-05-04 23:49:00,
2013-05-04 19:50:00,76.7,68.6,29.77,NNW,334,12.0,15.0,76,0.00,,FEW,0.00,7.00,VWS V14.01,2013-05-04 23:50:00,
2013-05-04 19:51:00,76.7,68.6,29.77,NW,304,13.0,15.0,76,0.00,,FEW,0.00,7.00,VWS V14.01,2013-05-04 23:51:00,
2013-05-04 19:52:00,76.7,68.6,29.77,NNW,344,10.0,15.0,76,0.00,,FEW,0.00,5.00,VWS V14.01,2013-05-04 23:52:00,
2013-05-04 19:55:00,76.7,68.9,29.77,NNW,331,3.0,11.0,77,0.00,,FEW,0.00,0.00,VWS V14.01,2013-05-04 23:55:00,
2013-05-04 19:57:00,76.7,68.9,29.77,WNW,284,9.0,13.0,77,0.00,,FEW,0.00,0.00,VWS V14.01,2013-05-04 23:57:00,
2013-05-04 20:00:00,76.6,68.5,29.77,NNW,331,7.0,13.0,76,0.00,,FEW,0.00,0.00,VWS V14.01,2013-05-05 00:00:00,
2013-05-04 20:02:00,76.5,68.4,29.78,WNW,303,7.0,14.0,76,0.00,,FEW,0.00,0.00,VWS V14.01,2013-05-05 00:02:00,
2013-05-04 20:05:00,76.4,68.3,29.78,NW,309,12.0,12.0,76,0.00,,FEW,0.00,0.00,VWS V14.01,2013-05-05 00:05:00,
2013-05-04 20:07:00,76.4,68.3,29.78,WNW,285,7.0,12.0,76,0.00,,FEW,0.00,0.00,VWS V14.01,2013-05-05 00:07:00,
2013-05-04 20:10:00,76.4,68.3,29.78,WNW,290,8.0,12.0,76,0.00,,FEW,0.00,0.00,VWS V14.01,2013-05-05 00:10:00,
2013-05-04 20:11:00,76.4,68.7,29.78,WNW,296,8.0,12.0,77,0.00,,FEW,0.00,0.00,VWS V14.01,2013-05-05 00:11:00,
2013-05-04 20:12:00,76.5,68.8,29.78,NW,306,7.0,12.0,77,0.00,,FEW,0.00,0.00,VWS V14.01,2013-05-05 00:12:00,
2013-05-04 20:15:00,76.4,68.3,29.78,NW,321,3.0,12.0,76,0.00,,FEW,0.00,0.00,VWS V14.01,2013-05-05 00:15:00,
2013-05-04 20:16:00,76.4,68.3,29.78,WNW,294,4.0,12.0,76,0.00,,FEW,0.00,0.00,VWS V14.01,2013-05-05 00:16:00,
2013-05-04 20:17:00,76.4,68.3,29.79,NNW,327,10.0,13.0,76,0.00,,FEW,0.00,0.00,VWS V14.01,2013-05-05 00:17:00,
2013-05-04 20:18:00,76.4,68.3,29.79,NW,308,8.0,13.0,76,0.00,,FEW,0.00,0.00,VWS V14.01,2013-05-05 00:18:00,
2013-05-04 20:20:00,76.3,68.2,29.79,NW,326,4.0,14.0,76,0.00,,FEW,0.00,0.00,VWS V14.01,2013-05-05 00:20:00,
2013-05-04 20:22:00,76.3,68.2,29.79,NNW,327,10.0,14.0,76,0.00,,FEW,0.00,0.00,VWS V14.01,2013-05-05 00:22:00,
2013-05-04 20:23:00,76.3,68.2,29.79,NW,314,11.0,14.0,76,0.00,,FEW,0.00,0.00,VWS V14.01,2013-05-05 00:23:00,
2013-05-04 20:26:00,76.2,68.1,29.79,NNW,339,3.0,14.0,76,0.00,,FEW,0.00,0.00,VWS V14.01,2013-05-05 00:26:00,
2013-05-04 20:27:00,76.2,68.1,29.79,NW,306,8.0,15.0,76,0.00,,FEW,0.00,0.00,VWS V14.01,2013-05-05 00:27:00,
2013-05-04 20:28:00,76.2,68.1,29.79,NW,310,4.0,15.0,76,0.00,,FEW,0.00,0.00,VWS V14.01,2013-05-05 00:28:00,
2013-05-04 20:31:00,76.2,67.7,29.79,NW,317,4.0,15.0,75,0.00,,FEW,0.00,0.00,VWS V14.01,2013-05-05 00:31:00,
2013-05-04 20:32:00,76.1,67.6,29.79,NW,322,2.0,15.0,75,0.00,,FEW,0.00,0.00,VWS V14.01,2013-05-05 00:32:00,
2013-05-04 20:33:00,76.1,68.0,29.79,WNW,287,9.0,12.0,76,0.00,,FEW,0.00,0.00,VWS V14.01,2013-05-05 00:33:00,
2013-05-04 20:36:00,76.1,67.6,29.79,NW,313,11.0,12.0,75,0.00,,FEW,0.00,0.00,VWS V14.01,2013-05-05 00:36:00,
2013-05-04 20:37:00,76.1,67.6,29.79,NW,317,7.0,12.0,75,0.00,,FEW,0.00,0.00,VWS V14.01,2013-05-05 00:37:00,
2013-05-04 20:38:00,76.1,67.6,29.79,NW,312,3.0,12.0,75,0.00,,FEW,0.00,0.00,VWS V14.01,2013-05-05 00:38:00,
2013-05-04 20:41:00,76.1,67.6,29.79,WNW,284,6.0,12.0,75,0.00,,FEW,0.00,0.00,VWS V14.01,2013-05-05 00:41:00,
2013-05-04 20:42:00,76.1,67.2,29.79,NNW,335,5.0,12.0,74,0.00,,FEW,0.00,0.00,VWS V14.01,2013-05-05 00:42:00,
2013-05-04 20:43:00,76.1,67.6,29.79,West,275,5.0,6.0,75,0.00,,FEW,0.00,0.00,VWS V14.01,2013-05-05 00:43:00,
2013-05-04 20:46:00,76.1,67.6,29.79,WNW,291,8.0,13.0,75,0.00,,FEW,0.00,0.00,VWS V14.01,2013-05-05 00:46:00,
2013-05-04 20:47:00,76.0,67.5,29.79,NW,311,6.0,13.0,75,0.00,,FEW,0.00,0.00,VWS V14.01,2013-05-05 00:47:00,
2013-05-04 20:48:00,76.1,67.6,29.79,NNW,346,6.0,13.0,75,0.00,,FEW,0.00,0.00,VWS V14.01,2013-05-05 00:48:00,
2013-05-04 20:49:00,76.1,67.6,29.79,NNW,327,6.0,13.0,75,0.00,,FEW,0.00,0.00,VWS V14.01,2013-05-05 00:49:00,
2013-05-04 20:51:00,76.1,68.0,29.79,NW,308,5.0,13.0,76,0.00,,FEW,0.00,0.00,VWS V14.01,2013-05-05 00:51:00,
2013-05-04 20:52:00,76.1,68.0,29.79,WNW,295,7.0,13.0,76,0.00,,FEW,0.00,0.00,VWS V14.01,2013-05-05 00:52:00,
2013-05-04 20:53:00,76.1,68.0,29.79,NNW,340,6.0,6.0,76,0.00,,FEW,0.00,0.00,VWS V14.01,2013-05-05 00:53:00,
2013-05-04 20:54:00,76.2,68.1,29.79,NW,325,9.0,9.0,76,0.00,,FEW,0.00,0.00,VWS V14.01,2013-05-05 00:54:00,
2013-05-04 20:56:00,76.1,68.0,29.79,West,275,10.0,13.0,76,0.00,,FEW,0.00,0.00,VWS V14.01,2013-05-05 00:56:00,
2013-05-04 20:57:00,76.1,68.0,29.79,WNW,291,8.0,13.0,76,0.00,,FEW,0.00,0.00,VWS V14.01,2013-05-05 00:57:00,
2013-05-04 20:58:00,76.0,67.5,29.79,WNW,293,7.0,13.0,75,0.00,,FEW,0.00,0.00,VWS V14.01,2013-05-05 00:58:00,
2013-05-04 20:59:00,76.0,67.5,29.79,WNW,293,8.0,13.0,75,0.00,,FEW,0.00,0.00,VWS V14.01,2013-05-05 00:59:00,
2013-05-04 21:01:00,76.0,67.5,29.79,NNW,346,4.0,13.0,75,0.00,,FEW,0.00,0.00,VWS V14.01,2013-05-05 01:01:00,
2013-05-04 21:02:00,76.0,67.5,29.80,North,355,7.0,13.0,75,0.00,,FEW,0.00,0.00,VWS V14.01,2013-05-05 01:02:00,
2013-05-04 21:03:00,76.0,67.5,29.80,WNW,291,7.0,11.0,75,0.00,,FEW,0.00,0.00,VWS V14.01,2013-05-05 01:03:00,
2013-05-04 21:04:00,76.0,67.9,29.80,West,278,7.0,11.0,76,0.00,,FEW,0.00,0.00,VWS V14.01,2013-05-05 01:04:00,
2013-05-04 21:06:00,76.0,67.9,29.80,NW,311,7.0,13.0,76,0.00,,FEW,0.00,0.00,VWS V14.01,2013-05-05 01:06:00,
2013-05-04 21:07:00,76.0,67.9,29.80,West,277,4.0,13.0,76,0.00,,FEW,0.00,0.00,VWS V14.01,2013-05-05 01:07:00,
2013-05-04 21:08:00,75.9,67.8,29.80,NE,37,3.0,13.0,76,0.00,,FEW,0.00,0.00,VWS V14.01,2013-05-05 01:08:00,
2013-05-04 21:09:00,75.9,67.8,29.80,NW,319,5.0,13.0,76,0.00,,FEW,0.00,0.00,VWS V14.01,2013-05-05 01:09:00,
2013-05-04 21:10:00,75.9,67.8,29.80,NW,313,5.0,13.0,76,0.00,,FEW,0.00,0.00,VWS V14.01,2013-05-05 01:10:00,
2013-05-04 21:11:00,75.8,67.3,29.80,NW,306,5.0,13.0,75,0.00,,FEW,0.00,0.00,VWS V14.01,2013-05-05 01:11:00,
2013-05-04 21:12:00,75.8,67.3,29.80,WNW,301,4.0,13.0,75,0.00,,FEW,0.00,0.00,VWS V14.01,2013-05-05 01:12:00,
2013-05-04 21:13:00,75.8,67.3,29.80,WNW,286,9.0,12.0,75,0.00,,FEW,0.00,0.00,VWS V14.01,2013-05-05 01:13:00,
2013-05-04 21:14:00,75.8,67.3,29.80,NW,325,9.0,12.0,75,0.00,,FEW,0.00,0.00,VWS V14.01,2013-05-05 01:14:00,
2013-05-04 21:15:00,75.8,67.3,29.80,NNW,337,7.0,12.0,75,0.00,,FEW,0.00,0.00,VWS V14.01,2013-05-05 01:15:00,
2013-05-04 21:17:00,75.7,67.2,29.80,WNW,300,5.0,12.0,75,0.00,,FEW,0.00,0.00,VWS V14.01,2013-05-05 01:17:00,
2013-05-04 21:18:00,75.8,67.3,29.81,NW,325,5.0,12.0,75,0.00,,FEW,0.00,0.00,VWS V14.01,2013-05-05 01:18:00,
2013-05-04 21:19:00,75.8,67.3,29.81,NNW,335,8.0,12.0,75,0.00,,FEW,0.00,0.00,VWS V14.01,2013-05-05 01:19:00,
2013-05-04 21:20:00,75.8,67.3,29.81,NNW,335,8.0,12.0,75,0.00,,FEW,0.00,0.00,VWS V14.01,2013-05-05 01:20:00,
2013-05-04 21:22:00,75.8,67.3,29.81,NW,319,9.0,12.0,75,0.00,,FEW,0.00,0.00,VWS V14.01,2013-05-05 01:22:00,
2013-05-04 21:23:00,75.7,67.2,29.81,North,355,2.0,5.0,75,0.00,,FEW,0.00,0.00,VWS V14.01,2013-05-05 01:23:00,
2013-05-04 21:25:00,75.7,67.2,29.81,WNW,302,6.0,8.0,75,0.00,,FEW,0.00,0.00,VWS V14.01,2013-05-05 01:25:00,
2013-05-04 21:27:00,75.8,67.3,29.81,NW,304,12.0,12.0,75,0.00,,FEW,0.00,0.00,VWS V14.01,2013-05-05 01:27:00,
2013-05-04 21:28:00,75.8,67.3,29.81,WNW,302,5.0,12.0,75,0.00,,FEW,0.00,0.00,VWS V14.01,2013-05-05 01:28:00,
2013-05-04 21:30:00,75.8,67.3,29.81,WNW,294,7.0,12.0,75,0.00,,FEW,0.00,0.00,VWS V14.01,2013-05-05 01:30:00,
2013-05-04 21:32:00,75.9,67.4,29.81,NW,310,9.0,12.0,75,0.00,,FEW,0.00,0.00,VWS V14.01,2013-05-05 01:32:00,
2013-05-04 21:33:00,75.9,67.4,29.81,WNW,286,5.0,10.0,75,0.00,,FEW,0.00,0.00,VWS V14.01,2013-05-05 01:33:00,
2013-05-04 21:35:00,75.9,67.4,29.81,NW,319,4.0,10.0,75,0.00,,FEW,0.00,0.00,VWS V14.01,2013-05-05 01:35:00,
2013-05-04 21:37:00,75.9,67.4,29.81,North,9,5.0,10.0,75,0.00,,FEW,0.00,0.00,VWS V14.01,2013-05-05 01:37:00,
2013-05-04 21:39:00,75.9,67.4,29.81,WNW,297,5.0,11.0,75,0.00,,FEW,0.00,0.00,VWS V14.01,2013-05-05 01:39:00,
2013-05-04 21:40:00,75.8,67.3,29.81,NW,304,7.0,19.0,75,0.00,,FEW,0.00,0.00,VWS V14.01,2013-05-05 01:40:00,
2013-05-04 21:42:00,75.8,67.3,29.81,WNW,286,6.0,19.0,75,0.00,,FEW,0.00,0.00,VWS V14.01,2013-05-05 01:42:00,
2013-05-04 21:44:00,75.8,67.3,29.81,NW,315,10.0,13.0,75,0.00,,FEW,0.00,0.00,VWS V14.01,2013-05-05 01:44:00,
2013-05-04 21:45:00,75.8,66.9,29.81,WNW,288,13.0,14.0,74,0.00,,FEW,0.00,0.00,VWS V14.01,2013-05-05 01:45:00,
2013-05-04 21:46:00,75.8,66.9,29.81,NW,304,5.0,16.0,74,0.00,,FEW,0.00,0.00,VWS V14.01,2013-05-05 01:46:00,
2013-05-04 21:47:00,75.8,66.9,29.82,WNW,296,3.0,16.0,74,0.00,,FEW,0.00,0.00,VWS V14.01,2013-05-05 01:47:00,
2013-05-04 21:48:00,75.8,67.3,29.82,West,277,5.0,16.0,75,0.00,,FEW,0.00,0.00,VWS V14.01,2013-05-05 01:48:00,
2013-05-04 21:49:00,75.8,67.3,29.82,WNW,290,8.0,16.0,75,0.00,,FEW,0.00,0.00,VWS V14.01,2013-05-05 01:49:00,
2013-05-04 21:50:00,75.8,67.3,29.82,NW,316,8.0,16.0,75,0.00,,FEW,0.00,0.00,VWS V14.01,2013-05-05 01:50:00,
2013-05-04 21:51:00,75.8,67.3,29.82,NW,325,11.0,16.0,75,0.00,,FEW,0.00,0.00,VWS V14.01,2013-05-05 01:51:00,
2013-05-04 21:52:00,75.8,67.3,29.82,North,355,10.0,16.0,75,0.00,,FEW,0.00,0.00,VWS V14.01,2013-05-05 01:52:00,
2013-05-04 21:53:00,75.7,67.2,29.82,NW,326,6.0,16.0,75,0.00,,FEW,0.00,0.00,VWS V14.01,2013-05-05 01:53:00,
2013-05-04 21:54:00,75.7,67.2,29.82,West,275,8.0,10.0,75,0.00,,FEW,0.00,0.00,VWS V14.01,2013-05-05 01:54:00,
2013-05-04 21:55:00,75.7,67.2,29.82,NW,309,5.0,13.0,75,0.00,,FEW,0.00,0.00,VWS V14.01,2013-05-05 01:55:00,
2013-05-04 21:56:00,75.7,67.2,29.82,WNW,300,3.0,13.0,75,0.00,,FEW,0.00,0.00,VWS V14.01,2013-05-05 01:56:00,
2013-05-04 21:57:00,75.7,67.2,29.82,WNW,286,3.0,13.0,75,0.00,,FEW,0.00,0.00,VWS V14.01,2013-05-05 01:57:00,
2013-05-04 21:58:00,75.7,67.2,29.82,WNW,300,6.0,13.0,75,0.00,,FEW,0.00,0.00,VWS V14.01,2013-05-05 01:58:00,
2013-05-04 21:59:00,75.7,67.2,29.82,WNW,302,7.0,14.0,75,0.00,,FEW,0.00,0.00,VWS V14.01,2013-05-05 01:59:00,
2013-05-04 22:01:00,75.7,67.2,29.82,NW,304,6.0,14.0,75,0.00,,FEW,0.00,0.00,VWS V14.01,2013-05-05 02:01:00,
2013-05-04 22:02:00,75.7,67.2,29.83,NW,309,8.0,14.0,75,0.00,,FEW,0.00,0.00,VWS V14.01,2013-05-05 02:02:00,
2013-05-04 22:03:00,75.7,67.2,29.83,North,350,7.0,10.0,75,0.00,,FEW,0.00,0.00,VWS V14.01,2013-05-05 02:03:00,
2013-05-04 22:04:00,75.7,67.2,29.83,WNW,300,9.0,10.0,75,0.00,,FEW,0.00,0.00,VWS V14.01,2013-05-05 02:04:00,
2013-05-04 22:06:00,75.6,67.1,29.83,WNW,296,6.0,11.0,75,0.00,,FEW,0.00,0.00,VWS V14.01,2013-05-05 02:06:00,
2013-05-04 22:07:00,75.6,67.1,29.83,NW,313,8.0,13.0,75,0.00,,FEW,0.00,0.00,VWS V14.01,2013-05-05 02:07:00,
2013-05-04 22:08:00,75.6,67.1,29.83,WNW,292,7.0,13.0,75,0.00,,FEW,0.00,0.00,VWS V14.01,2013-05-05 02:08:00,
2013-05-04 22:09:00,75.5,66.6,29.83,West,272,3.0,13.0,74,0.00,,FEW,0.00,0.00,VWS V14.01,2013-05-05 02:09:00,
2013-05-04 22:11:00,75.5,66.6,29.83,NW,310,7.0,13.0,74,0.00,,FEW,0.00,0.00,VWS V14.01,2013-05-05 02:11:00,
2013-05-04 22:12:00,75.5,66.6,29.83,WNW,290,4.0,13.0,74,0.00,,FEW,0.00,0.00,VWS V14.01,2013-05-05 02:12:00,
2013-05-04 22:13:00,75.5,67.0,29.83,NW,309,5.0,9.0,75,0.00,,FEW,0.00,0.00,VWS V14.01,2013-05-05 02:13:00,
2013-05-04 22:15:00,75.5,66.6,29.83,NNW,347,6.0,11.0,74,0.00,,FEW,0.00,0.00,VWS V14.01,2013-05-05 02:15:00,
2013-05-04 22:16:00,75.5,66.6,29.83,NW,311,8.0,11.0,74,0.00,,FEW,0.00,0.00,VWS V14.01,2013-05-05 02:16:00,
2013-05-04 22:17:00,75.5,66.6,29.83,NW,310,7.0,14.0,74,0.00,,FEW,0.00,0.00,VWS V14.01,2013-05-05 02:17:00,
2013-05-04 22:18:00,75.5,66.6,29.83,NW,319,10.0,14.0,74,0.00,,FEW,0.00,0.00,VWS V14.01,2013-05-05 02:18:00,
2013-05-04 22:20:00,75.5,66.6,29.83,NW,326,8.0,14.0,74,0.00,,FEW,0.00,0.00,VWS V14.01,2013-05-05 02:20:00,
2013-05-04 22:21:00,75.4,66.5,29.83,WNW,283,7.0,16.0,74,0.00,,FEW,0.00,0.00,VWS V14.01,2013-05-05 02:21:00,
2013-05-04 22:22:00,75.4,66.2,29.83,WNW,290,10.0,16.0,73,0.00,,FEW,0.00,0.00,VWS V14.01,2013-05-05 02:22:00,
2013-05-04 22:23:00,75.3,66.1,29.83,NW,309,7.0,14.0,73,0.00,,FEW,0.00,0.00,VWS V14.01,2013-05-05 02:23:00,
2013-05-04 22:25:00,75.3,65.7,29.83,WNW,285,6.0,14.0,72,0.00,,FEW,0.00,0.00,VWS V14.01,2013-05-05 02:25:00,
2013-05-04 22:26:00,75.3,65.7,29.83,NW,319,10.0,14.0,72,0.00,,FEW,0.00,0.00,VWS V14.01,2013-05-05 02:26:00,
2013-05-04 22:27:00,75.3,65.7,29.83,NW,318,8.0,14.0,72,0.00,,FEW,0.00,0.00,VWS V14.01,2013-05-05 02:27:00,
2013-05-04 22:28:00,75.3,65.3,29.83,WNW,299,4.0,14.0,71,0.00,,FEW,0.00,0.00,VWS V14.01,2013-05-05 02:28:00,
2013-05-04 22:30:00,75.3,65.3,29.83,WNW,290,11.0,14.0,71,0.00,,FEW,0.00,0.00,VWS V14.01,2013-05-05 02:30:00,
2013-05-04 22:31:00,75.3,64.8,29.83,WNW,303,4.0,14.0,70,0.00,,FEW,0.00,0.00,VWS V14.01,2013-05-05 02:31:00,
2013-05-04 22:32:00,75.3,64.8,29.84,NW,306,12.0,14.0,70,0.00,,FEW,0.00,0.00,VWS V14.01,2013-05-05 02:32:00,
2013-05-04 22:33:00,75.3,64.8,29.84,WNW,298,8.0,14.0,70,0.00,,FEW,0.00,0.00,VWS V14.01,2013-05-05 02:33:00,
2013-05-04 22:35:00,75.3,64.8,29.84,WNW,286,5.0,13.0,70,0.00,,FEW,0.00,0.00,VWS V14.01,2013-05-05 02:35:00,
2013-05-04 22:37:00,75.4,65.3,29.84,West,270,5.0,14.0,71,0.00,,FEW,0.00,0.00,VWS V14.01,2013-05-05 02:37:00,
2013-05-04 22:38:00,75.4,65.3,29.84,NW,304,7.0,14.0,71,0.00,,FEW,0.00,0.00,VWS V14.01,2013-05-05 02:38:00,
2013-05-04 22:40:00,75.4,65.3,29.84,West,269,10.0,14.0,71,0.00,,FEW,0.00,0.00,VWS V14.01,2013-05-05 02:40:00,
2013-05-04 22:42:00,75.3,64.8,29.84,WNW,297,4.0,14.0,70,0.00,,FEW,0.00,0.00,VWS V14.01,2013-05-05 02:42:00,
2013-05-04 22:43:00,75.3,64.8,29.84,WNW,291,6.0,6.0,70,0.00,,FEW,0.00,0.00,VWS V14.01,2013-05-05 02:43:00,
2013-05-04 22:45:00,75.2,64.3,29.84,WNW,293,3.0,11.0,69,0.00,,FEW,0.00,0.00,VWS V14.01,2013-05-05 02:45:00,
2013-05-04 22:47:00,75.2,63.9,29.84,NW,319,4.0,11.0,68,0.00,,FEW,0.00,0.00,VWS V14.01,2013-05-05 02:47:00,
2013-05-04 22:48:00,75.2,63.9,29.84,WNW,296,3.0,11.0,68,0.00,,FEW,0.00,0.00,VWS V14.01,2013-05-05 02:48:00,
2013-05-04 22:50:00,75.2,63.9,29.84,WNW,293,6.0,15.0,68,0.00,,FEW,0.00,0.00,VWS V14.01,2013-05-05 02:50:00,
2013-05-04 22:53:00,75.2,63.9,29.84,NW,309,6.0,15.0,68,0.00,,FEW,0.00,0.00,VWS V14.01,2013-05-05 02:53:00,
2013-05-04 22:55:00,75.1,63.0,29.84,West,271,6.0,10.0,66,0.00,,FEW,0.00,0.00,VWS V14.01,2013-05-05 02:55:00,
2013-05-04 22:58:00,75.1,63.0,29.84,WNW,289,7.0,10.0,66,0.00,,FEW,0.00,0.00,VWS V14.01,2013-05-05 02:58:00,
2013-05-04 22:59:00,75.1,63.0,29.84,NW,306,4.0,10.0,66,0.00,,FEW,0.00,0.00,VWS V14.01,2013-05-05 02:59:00,
2013-05-04 23:01:00,75.1,63.0,29.84,West,279,9.0,11.0,66,0.00,,FEW,0.00,0.00,VWS V14.01,2013-05-05 03:01:00,
2013-05-04 23:03:00,75.2,62.6,29.84,West,279,7.0,7.0,65,0.00,,FEW,0.00,0.00,VWS V14.01,2013-05-05 03:03:00,
2013-05-04 23:04:00,75.2,63.1,29.84,NW,311,7.0,9.0,66,0.00,,FEW,0.00,0.00,VWS V14.01,2013-05-05 03:04:00,
2013-05-04 23:06:00,75.2,63.1,29.84,NW,315,4.0,10.0,66,0.00,,FEW,0.00,0.00,VWS V14.01,2013-05-05 03:06:00,
2013-05-04 23:08:00,75.2,63.1,29.84,ENE,57,3.0,10.0,66,0.00,,FEW,0.00,0.00,VWS V14.01,2013-05-05 03:08:00,
2013-05-04 23:09:00,75.2,63.5,29.84,WNW,284,6.0,10.0,67,0.00,,FEW,0.00,0.00,VWS V14.01,2013-05-05 03:09:00,
2013-05-04 23:11:00,75.2,63.9,29.84,West,281,4.0,10.0,68,0.00,,FEW,0.00,0.00,VWS V14.01,2013-05-05 03:11:00,
2013-05-04 23:13:00,75.2,64.3,29.84,NW,323,6.0,6.0,69,0.00,,FEW,0.00,0.00,VWS V14.01,2013-05-05 03:13:00,
2013-05-04 23:14:00,75.2,64.8,29.84,West,267,7.0,11.0,70,0.00,,FEW,0.00,0.00,VWS V14.01,2013-05-05 03:14:00,
2013-05-04 23:16:00,75.2,64.8,29.84,WSW,258,6.0,11.0,70,0.00,,FEW,0.00,0.00,VWS V14.01,2013-05-05 03:16:00,
2013-05-04 23:18:00,75.2,65.2,29.84,WNW,303,5.0,11.0,71,0.00,,FEW,0.00,0.00,VWS V14.01,2013-05-05 03:18:00,
2013-05-04 23:19:00,75.1,65.1,29.84,NNW,327,5.0,11.0,71,0.00,,FEW,0.00,0.00,VWS V14.01,2013-05-05 03:19:00,
2013-05-04 23:21:00,75.0,65.0,29.84,NW,310,7.0,11.0,71,0.00,,FEW,0.00,0.00,VWS V14.01,2013-05-05 03:21:00,
2013-05-04 23:23:00,75.0,65.0,29.84,WNW,289,6.0,6.0,71,0.00,,FEW,0.00,0.00,VWS V14.01,2013-05-05 03:23:00,
2013-05-04 23:24:00,74.9,64.9,29.84,WNW,302,8.0,9.0,71,0.00,,FEW,0.00,0.00,VWS V14.01,2013-05-05 03:24:00,
2013-05-04 23:27:00,74.9,64.9,29.84,NW,308,4.0,12.0,71,0.00,,FEW,0.00,0.00,VWS V14.01,2013-05-05 03:27:00,
2013-05-04 23:28:00,74.9,64.9,29.84,WNW,292,6.0,12.0,71,0.00,,FEW,0.00,0.00,VWS V14.01,2013-05-05 03:28:00,
2013-05-04 23:29:00,74.9,64.9,29.84,WNW,289,3.0,12.0,71,0.00,,FEW,0.00,0.00,VWS V14.01,2013-05-05 03:29:00,
2013-05-04 23:32:00,74.8,65.6,29.84,West,269,7.0,12.0,73,0.00,,FEW,0.00,0.00,VWS V14.01,2013-05-05 03:32:00,
2013-05-04 23:33:00,74.9,65.7,29.84,WNW,301,12.0,12.0,73,0.00,,FEW,0.00,0.00,VWS V14.01,2013-05-05 03:33:00,
2013-05-04 23:34:00,74.8,65.6,29.84,West,265,5.0,12.0,73,0.00,,FEW,0.00,0.00,VWS V14.01,2013-05-05 03:34:00,
2013-05-04 23:37:00,74.8,65.6,29.84,WNW,285,5.0,12.0,73,0.00,,FEW,0.00,0.00,VWS V14.01,2013-05-05 03:37:00,
2013-05-04 23:39:00,74.7,65.5,29.84,WNW,286,5.0,12.0,73,0.00,,FEW,0.00,0.00,VWS V14.01,2013-05-05 03:39:00,
2013-05-04 23:42:00,74.6,65.8,29.84,WNW,282,8.0,12.0,74,0.00,,FEW,0.00,0.00,VWS V14.01,2013-05-05 03:42:00,
2013-05-04 23:44:00,74.6,65.8,29.84,West,279,6.0,8.0,74,0.00,,FEW,0.00,0.00,VWS V14.01,2013-05-05 03:44:00,
2013-05-04 23:45:00,74.6,65.8,29.84,WNW,292,7.0,14.0,74,0.00,,FEW,0.00,0.00,VWS V14.01,2013-05-05 03:45:00,
2013-05-04 23:47:00,74.5,65.7,29.84,NW,311,4.0,14.0,74,0.00,,FEW,0.00,0.00,VWS V14.01,2013-05-05 03:47:00,
2013-05-04 23:49:00,74.5,65.7,29.84,NW,304,8.0,14.0,74,0.00,,FEW,0.00,0.00,VWS V14.01,2013-05-05 03:49:00,
2013-05-04 23:50:00,74.5,65.7,29.84,NW,309,8.0,14.0,74,0.00,,FEW,0.00,0.00,VWS V14.01,2013-05-05 03:50:00,
2013-05-04 23:52:00,74.4,65.6,29.84,West,281,2.0,14.0,74,0.00,,FEW,0.00,0.00,VWS V14.01,2013-05-05 03:52:00,
2013-05-04 23:54:00,74.4,65.6,29.84,WNW,303,7.0,10.0,74,0.00,,FEW,0.00,0.00,VWS V14.01,2013-05-05 03:54:00,
2013-05-04 23:55:00,74.4,65.6,29.84,West,275,7.0,10.0,74,0.00,,FEW,0.00,0.00,VWS V14.01,2013-05-05 03:55:00,
2013-05-04 23:57:00,74.3,65.1,29.84,WNW,290,7.0,12.0,73,0.00,,FEW,0.00,0.00,VWS V14.01,2013-05-05 03:57:00,
2013-05-04 23:59:00,74.3,65.1,29.84,West,275,9.0,12.0,73,0.00,,FEW,0.00,0.00,VWS V14.01,2013-05-05 03:59:00,